Time,TemperatureF,DewpointF,PressureIn,WindDirection,WindDirectionDegrees,WindSpeedMPH,WindSpeedGustMPH,Humidity,HourlyPrecipIn,Conditions,Clouds,dailyrainin,SolarRadiationWatts/m^2,SoftwareType,DateUTC
2013-02-17 00:02:00,7.8,-1.2,30.08,SSE,159,4.0,5.0,66,0.00,,,0.00,0,Wunderground v.1.15,2013-02-17 06:02:00,
2013-02-17 00:03:00,7.8,-1.2,30.08,SSE,159,6.0,6.0,66,0.00,,,0.00,0,Wunderground v.1.15,2013-02-17 06:03:00,
2013-02-17 00:05:00,8.0,-1.0,30.07,SSE,159,7.0,7.0,66,0.00,,,0.00,0,Wunderground v.1.15,2013-02-17 06:05:00,
2013-02-17 00:08:00,8.3,-0.7,30.08,SSE,159,6.0,7.0,66,0.00,,,0.00,0,Wunderground v.1.15,2013-02-17 06:08:00,
2013-02-17 00:09:00,8.3,-0.7,30.08,SSE,159,5.0,7.0,66,0.00,,,0.00,0,Wunderground v.1.15,2013-02-17 06:09:00,
2013-02-17 00:13:00,8.5,-0.5,30.08,SSE,156,6.0,10.0,66,0.00,,,0.00,0,Wunderground v.1.15,2013-02-17 06:13:00,
2013-02-17 00:14:00,8.6,-0.8,30.08,SSE,156,6.0,10.0,65,0.00,,,0.00,0,Wunderground v.1.15,2013-02-17 06:14:00,
2013-02-17 00:15:00,8.7,-0.3,30.08,SSE,156,7.0,10.0,66,0.00,,,0.00,0,Wunderground v.1.15,2013-02-17 06:15:00,
2013-02-17 00:17:00,8.8,-0.6,30.07,SSE,156,5.0,10.0,65,0.00,,,0.00,0,Wunderground v.1.15,2013-02-17 06:17:00,
2013-02-17 00:19:00,8.9,-0.5,30.07,SSE,156,8.0,10.0,65,0.00,,,0.00,0,Wunderground v.1.15,2013-02-17 06:19:00,
2013-02-17 00:21:00,9.1,-0.3,30.07,SSE,154,5.0,7.0,65,0.00,,,0.00,0,Wunderground v.1.15,2013-02-17 06:21:00,
2013-02-17 00:23:00,9.1,-0.3,30.07,SSE,154,6.0,7.0,65,0.00,,,0.00,0,Wunderground v.1.15,2013-02-17 06:23:00,
2013-02-17 00:26:00,9.1,-0.6,30.07,SSE,154,5.0,7.0,64,0.00,,,0.00,0,Wunderground v.1.15,2013-02-17 06:26:00,
2013-02-17 00:27:00,9.2,-0.5,30.07,SSE,154,7.0,7.0,64,0.00,,,0.00,0,Wunderground v.1.15,2013-02-17 06:27:00,
2013-02-17 00:28:00,9.1,-0.6,30.07,SSE,154,8.0,8.0,64,0.00,,,0.00,0,Wunderground v.1.15,2013-02-17 06:28:00,
2013-02-17 00:29:00,9.2,-0.5,30.07,SSE,154,4.0,8.0,64,0.00,,,0.00,0,Wunderground v.1.15,2013-02-17 06:29:00,
2013-02-17 00:33:00,9.2,-0.5,30.07,SSE,154,6.0,6.0,64,0.00,,,0.00,0,Wunderground v.1.15,2013-02-17 06:33:00,
2013-02-17 00:34:00,9.2,-0.5,30.08,SSE,154,3.0,6.0,64,0.00,,,0.00,0,Wunderground v.1.15,2013-02-17 06:34:00,
2013-02-17 00:35:00,9.2,-0.5,30.08,SSE,154,3.0,6.0,64,0.00,,,0.00,0,Wunderground v.1.15,2013-02-17 06:35:00,
2013-02-17 00:36:00,9.2,-0.5,30.08,SSE,154,5.0,6.0,64,0.00,,,0.00,0,Wunderground v.1.15,2013-02-17 06:36:00,
2013-02-17 00:40:00,9.2,-0.5,30.08,SSE,154,6.0,6.0,64,0.00,,,0.00,0,Wunderground v.1.15,2013-02-17 06:40:00,
2013-02-17 00:41:00,9.2,-0.9,30.08,SSE,154,6.0,6.0,63,0.00,,,0.00,0,Wunderground v.1.15,2013-02-17 06:41:00,
2013-02-17 00:42:00,9.2,-0.5,30.08,SSE,154,5.0,6.0,64,0.00,,,0.00,0,Wunderground v.1.15,2013-02-17 06:42:00,
2013-02-17 00:47:00,9.2,-0.5,30.08,SSE,154,6.0,6.0,64,0.00,,,0.00,0,Wunderground v.1.15,2013-02-17 06:47:00,
2013-02-17 00:48:00,9.2,-0.5,30.08,SSE,154,5.0,6.0,64,0.00,,,0.00,0,Wunderground v.1.15,2013-02-17 06:48:00,
2013-02-17 00:54:00,9.4,-0.7,30.08,SSE,153,5.0,8.0,63,0.00,,,0.00,0,Wunderground v.1.15,2013-02-17 06:54:00,
2013-02-17 00:56:00,9.4,-0.7,30.08,SSE,152,8.0,8.0,63,0.00,,,0.00,0,Wunderground v.1.15,2013-02-17 06:56:00,
2013-02-17 00:59:00,9.4,-0.7,30.09,SSE,150,6.0,8.0,63,0.00,,,0.00,0,Wunderground v.1.15,2013-02-17 06:59:00,
2013-02-17 01:00:00,9.4,-0.7,30.08,SSE,150,8.0,8.0,63,0.00,,,0.00,0,Wunderground v.1.15,2013-02-17 07:00:00,
2013-02-17 01:01:00,9.5,-0.6,30.08,SSE,150,7.0,8.0,63,0.00,,,0.00,0,Wunderground v.1.15,2013-02-17 07:01:00,
2013-02-17 01:02:00,9.4,-0.7,30.09,SSE,150,9.0,9.0,63,0.00,,,0.00,0,Wunderground v.1.15,2013-02-17 07:02:00,
2013-02-17 01:07:00,9.3,-0.8,30.09,SSE,150,10.0,13.0,63,0.00,,,0.00,0,Wunderground v.1.15,2013-02-17 07:07:00,
2013-02-17 01:08:00,9.4,-0.7,30.09,SSE,150,6.0,13.0,63,0.00,,,0.00,0,Wunderground v.1.15,2013-02-17 07:08:00,
2013-02-17 01:09:00,9.3,-0.8,30.09,SSE,150,8.0,13.0,63,0.00,,,0.00,0,Wunderground v.1.15,2013-02-17 07:09:00,
2013-02-17 01:12:00,9.3,-0.8,30.09,SSE,149,4.0,7.0,63,0.00,,,0.00,0,Wunderground v.1.15,2013-02-17 07:12:00,
2013-02-17 01:14:00,9.3,-0.8,30.09,SSE,149,6.0,7.0,63,0.00,,,0.00,0,Wunderground v.1.15,2013-02-17 07:14:00,
2013-02-17 01:15:00,9.2,-0.9,30.09,SSE,149,4.0,7.0,63,0.00,,,0.00,0,Wunderground v.1.15,2013-02-17 07:15:00,
2013-02-17 01:16:00,9.2,-0.9,30.09,SSE,149,5.0,7.0,63,0.00,,,0.00,0,Wunderground v.1.15,2013-02-17 07:16:00,
2013-02-17 01:19:00,9.0,-1.1,30.08,SSE,149,4.0,7.0,63,0.00,,,0.00,0,Wunderground v.1.15,2013-02-17 07:19:00,
2013-02-17 01:21:00,9.0,-1.1,30.09,SSE,149,4.0,4.0,63,0.00,,,0.00,0,Wunderground v.1.15,2013-02-17 07:21:00,
2013-02-17 01:22:00,8.9,-1.1,30.09,SSE,149,2.0,4.0,63,0.00,,,0.00,0,Wunderground v.1.15,2013-02-17 07:22:00,
2013-02-17 01:23:00,8.8,-1.2,30.09,SSE,149,7.0,7.0,63,0.00,,,0.00,0,Wunderground v.1.15,2013-02-17 07:23:00,
2013-02-17 01:28:00,8.8,-1.2,30.08,SSE,149,5.0,7.0,63,0.00,,,0.00,0,Wunderground v.1.15,2013-02-17 07:28:00,
2013-02-17 01:30:00,8.8,-1.2,30.09,SSE,149,5.0,5.0,63,0.00,,,0.00,0,Wunderground v.1.15,2013-02-17 07:30:00,
2013-02-17 01:31:00,8.8,-1.2,30.08,SSE,149,9.0,9.0,63,0.00,,,0.00,0,Wunderground v.1.15,2013-02-17 07:31:00,
2013-02-17 01:35:00,9.0,-0.7,30.08,SSE,149,3.0,12.0,64,0.00,,,0.00,0,Wunderground v.1.15,2013-02-17 07:35:00,
2013-02-17 01:36:00,8.9,-0.8,30.08,SSE,149,7.0,12.0,64,0.00,,,0.00,0,Wunderground v.1.15,2013-02-17 07:36:00,
2013-02-17 01:37:00,9.0,-1.1,30.08,SSE,149,5.0,12.0,63,0.00,,,0.00,0,Wunderground v.1.15,2013-02-17 07:37:00,
2013-02-17 01:42:00,8.8,-0.9,30.08,SSE,148,7.0,7.0,64,0.00,,,0.00,0,Wunderground v.1.15,2013-02-17 07:42:00,
2013-02-17 01:43:00,8.8,-1.2,30.08,SSE,148,3.0,7.0,63,0.00,,,0.00,0,Wunderground v.1.15,2013-02-17 07:43:00,
2013-02-17 01:44:00,8.8,-1.2,30.08,SSE,148,4.0,7.0,63,0.00,,,0.00,0,Wunderground v.1.15,2013-02-17 07:44:00,
2013-02-17 01:45:00,8.7,-1.3,30.08,SSE,148,5.0,7.0,63,0.00,,,0.00,0,Wunderground v.1.15,2013-02-17 07:45:00,
2013-02-17 01:48:00,8.6,-1.1,30.08,SSE,148,3.0,7.0,64,0.00,,,0.00,0,Wunderground v.1.15,2013-02-17 07:48:00,
2013-02-17 01:51:00,8.5,-1.5,30.08,SSE,148,3.0,3.0,63,0.00,,,0.00,0,Wunderground v.1.15,2013-02-17 07:51:00,
2013-02-17 01:52:00,8.4,-1.3,30.07,SSE,148,5.0,5.0,64,0.00,,,0.00,0,Wunderground v.1.15,2013-02-17 07:52:00,
2013-02-17 01:55:00,8.3,-1.4,30.08,SSE,148,4.0,5.0,64,0.00,,,0.00,0,Wunderground v.1.15,2013-02-17 07:55:00,
2013-02-17 01:57:00,8.3,-1.4,30.07,SSE,148,4.0,5.0,64,0.00,,,0.00,0,Wunderground v.1.15,2013-02-17 07:57:00,
2013-02-17 02:00:00,8.2,-1.5,30.08,SSE,148,3.0,3.0,64,0.00,,,0.00,0,Wunderground v.1.15,2013-02-17 08:00:00,
2013-02-17 02:01:00,8.2,-1.5,30.07,SSE,148,4.0,4.0,64,0.00,,,0.00,0,Wunderground v.1.15,2013-02-17 08:01:00,
2013-02-17 02:02:00,8.2,-1.5,30.07,SSE,148,4.0,6.0,64,0.00,,,0.00,0,Wunderground v.1.15,2013-02-17 08:02:00,
2013-02-17 02:05:00,8.2,-1.5,30.07,SSE,148,4.0,6.0,64,0.00,,,0.00,0,Wunderground v.1.15,2013-02-17 08:05:00,
2013-02-17 02:06:00,8.1,-1.6,30.07,SSE,148,4.0,6.0,64,0.00,,,0.00,0,Wunderground v.1.15,2013-02-17 08:06:00,
2013-02-17 02:07:00,8.0,-1.7,30.07,SSE,148,6.0,6.0,64,0.00,,,0.00,0,Wunderground v.1.15,2013-02-17 08:07:00,
2013-02-17 02:10:00,8.0,-1.7,30.07,SSE,148,3.0,5.0,64,0.00,,,0.00,0,Wunderground v.1.15,2013-02-17 08:10:00,
2013-02-17 02:11:00,8.0,-1.7,30.07,SSE,148,3.0,5.0,64,0.00,,,0.00,0,Wunderground v.1.15,2013-02-17 08:11:00,
2013-02-17 02:12:00,7.9,-1.8,30.07,SSE,148,4.0,5.0,64,0.00,,,0.00,0,Wunderground v.1.15,2013-02-17 08:12:00,
2013-02-17 02:15:00,7.9,-1.8,30.08,SSE,148,4.0,6.0,64,0.00,,,0.00,0,Wunderground v.1.15,2013-02-17 08:15:00,
2013-02-17 02:16:00,7.9,-1.8,30.07,SSE,148,4.0,6.0,64,0.00,,,0.00,0,Wunderground v.1.15,2013-02-17 08:16:00,
2013-02-17 02:17:00,7.9,-1.8,30.07,SSE,148,4.0,7.0,64,0.00,,,0.00,0,Wunderground v.1.15,2013-02-17 08:17:00,
2013-02-17 02:20:00,7.8,-1.9,30.07,SSE,148,7.0,7.0,64,0.00,,,0.00,0,Wunderground v.1.15,2013-02-17 08:20:00,
2013-02-17 02:21:00,7.8,-1.9,30.08,SSE,148,7.0,7.0,64,0.00,,,0.00,0,Wunderground v.1.15,2013-02-17 08:21:00,
2013-02-17 02:22:00,7.9,-1.4,30.07,SSE,148,5.0,7.0,65,0.00,,,0.00,0,Wunderground v.1.15,2013-02-17 08:22:00,
2013-02-17 02:25:00,8.0,-1.3,30.07,SSE,148,9.0,9.0,65,0.00,,,0.00,0,Wunderground v.1.15,2013-02-17 08:25:00,
2013-02-17 02:26:00,8.0,-1.3,30.07,SSE,148,5.0,9.0,65,0.00,,,0.00,0,Wunderground v.1.15,2013-02-17 08:26:00,
2013-02-17 02:27:00,8.0,-1.3,30.07,SSE,148,5.0,9.0,65,0.00,,,0.00,0,Wunderground v.1.15,2013-02-17 08:27:00,
2013-02-17 02:31:00,7.9,-1.4,30.07,SSE,147,6.0,7.0,65,0.00,,,0.00,0,Wunderground v.1.15,2013-02-17 08:31:00,
2013-02-17 02:32:00,7.9,-1.4,30.07,SSE,147,8.0,8.0,65,0.00,,,0.00,0,Wunderground v.1.15,2013-02-17 08:32:00,
2013-02-17 02:36:00,7.9,-1.4,30.07,SSE,147,6.0,8.0,65,0.00,,,0.00,0,Wunderground v.1.15,2013-02-17 08:36:00,
2013-02-17 02:37:00,7.9,-1.4,30.07,SSE,147,5.0,8.0,65,0.00,,,0.00,0,Wunderground v.1.15,2013-02-17 08:37:00,
2013-02-17 02:41:00,7.8,-1.5,30.07,SSE,147,4.0,5.0,65,0.00,,,0.00,0,Wunderground v.1.15,2013-02-17 08:41:00,
2013-02-17 02:42:00,7.8,-1.5,30.06,SSE,147,6.0,8.0,65,0.00,,,0.00,0,Wunderground v.1.15,2013-02-17 08:42:00,
2013-02-17 02:43:00,7.8,-1.5,30.07,SSE,147,4.0,8.0,65,0.00,,,0.00,0,Wunderground v.1.15,2013-02-17 08:43:00,
2013-02-17 02:46:00,7.8,-1.5,30.07,SSE,147,4.0,10.0,65,0.00,,,0.00,0,Wunderground v.1.15,2013-02-17 08:46:00,
2013-02-17 02:47:00,7.9,-1.4,30.07,SSE,147,5.0,10.0,65,0.00,,,0.00,0,Wunderground v.1.15,2013-02-17 08:47:00,
2013-02-17 02:48:00,7.9,-1.4,30.07,SSE,147,4.0,10.0,65,0.00,,,0.00,0,Wunderground v.1.15,2013-02-17 08:48:00,
2013-02-17 02:51:00,7.9,-1.4,30.06,SE,145,9.0,12.0,65,0.00,,,0.00,0,Wunderground v.1.15,2013-02-17 08:51:00,
2013-02-17 02:52:00,7.9,-1.4,30.06,SE,145,5.0,12.0,65,0.00,,,0.00,0,Wunderground v.1.15,2013-02-17 08:52:00,
2013-02-17 02:53:00,8.0,-1.3,30.07,SE,145,6.0,12.0,65,0.00,,,0.00,0,Wunderground v.1.15,2013-02-17 08:53:00,
2013-02-17 02:56:00,8.0,-1.3,30.06,SE,144,7.0,12.0,65,0.00,,,0.00,0,Wunderground v.1.15,2013-02-17 08:56:00,
2013-02-17 02:57:00,8.0,-1.0,30.06,SE,144,5.0,12.0,66,0.00,,,0.00,0,Wunderground v.1.15,2013-02-17 08:57:00,
2013-02-17 02:58:00,8.1,-0.9,30.06,SE,144,6.0,12.0,66,0.00,,,0.00,0,Wunderground v.1.15,2013-02-17 08:58:00,
2013-02-17 03:01:00,8.2,-0.8,30.06,SE,144,3.0,7.0,66,0.00,,,0.00,0,Wunderground v.1.15,2013-02-17 09:01:00,
2013-02-17 03:02:00,8.1,-0.9,30.06,SE,144,4.0,7.0,66,0.00,,,0.00,0,Wunderground v.1.15,2013-02-17 09:02:00,
2013-02-17 03:03:00,8.2,-0.8,30.06,SE,144,7.0,10.0,66,0.00,,,0.00,0,Wunderground v.1.15,2013-02-17 09:03:00,
2013-02-17 03:06:00,8.3,-0.7,30.06,SE,143,5.0,10.0,66,0.00,,,0.00,0,Wunderground v.1.15,2013-02-17 09:06:00,
2013-02-17 03:07:00,8.2,-1.2,30.06,SE,143,7.0,10.0,65,0.00,,,0.00,0,Wunderground v.1.15,2013-02-17 09:07:00,
2013-02-17 03:08:00,8.2,-0.8,30.06,SE,143,5.0,10.0,66,0.00,,,0.00,0,Wunderground v.1.15,2013-02-17 09:08:00,
2013-02-17 03:12:00,8.3,-0.7,30.06,SE,143,6.0,11.0,66,0.00,,,0.00,0,Wunderground v.1.15,2013-02-17 09:12:00,
2013-02-17 03:13:00,8.3,-0.7,30.05,SE,142,4.0,11.0,66,0.00,,,0.00,0,Wunderground v.1.15,2013-02-17 09:13:00,
2013-02-17 03:17:00,8.4,-0.6,30.05,SE,142,6.0,11.0,66,0.00,,,0.00,0,Wunderground v.1.15,2013-02-17 09:17:00,
2013-02-17 03:18:00,8.3,-0.7,30.05,SE,142,5.0,11.0,66,0.00,,,0.00,0,Wunderground v.1.15,2013-02-17 09:18:00,
2013-02-17 03:22:00,8.4,-0.6,30.05,SE,142,5.0,9.0,66,0.00,,,0.00,0,Wunderground v.1.15,2013-02-17 09:22:00,
2013-02-17 03:23:00,8.4,-0.6,30.05,SE,142,7.0,9.0,66,0.00,,,0.00,0,Wunderground v.1.15,2013-02-17 09:23:00,
2013-02-17 03:27:00,8.3,-0.7,30.05,SE,142,6.0,10.0,66,0.00,,,0.00,0,Wunderground v.1.15,2013-02-17 09:27:00,
2013-02-17 03:28:00,8.3,-0.7,30.05,SE,142,5.0,10.0,66,0.00,,,0.00,0,Wunderground v.1.15,2013-02-17 09:28:00,
2013-02-17 03:29:00,8.4,-0.6,30.05,SE,142,4.0,10.0,66,0.00,,,0.00,0,Wunderground v.1.15,2013-02-17 09:29:00,
2013-02-17 03:32:00,8.2,-0.8,30.05,SE,142,4.0,8.0,66,0.00,,,0.00,0,Wunderground v.1.15,2013-02-17 09:32:00,
2013-02-17 03:33:00,8.3,-0.7,30.05,SE,142,4.0,8.0,66,0.00,,,0.00,0,Wunderground v.1.15,2013-02-17 09:33:00,
2013-02-17 03:34:00,8.3,-0.7,30.05,SE,142,5.0,8.0,66,0.00,,,0.00,0,Wunderground v.1.15,2013-02-17 09:34:00,
2013-02-17 03:37:00,8.3,-0.7,30.05,SE,142,5.0,8.0,66,0.00,,,0.00,0,Wunderground v.1.15,2013-02-17 09:37:00,
2013-02-17 03:38:00,8.4,-0.6,30.05,SE,142,5.0,8.0,66,0.00,,,0.00,0,Wunderground v.1.15,2013-02-17 09:38:00,
2013-02-17 03:39:00,8.3,-0.7,30.05,SE,142,5.0,8.0,66,0.00,,,0.00,0,Wunderground v.1.15,2013-02-17 09:39:00,
2013-02-17 03:43:00,8.2,-0.8,30.05,SE,142,7.0,7.0,66,0.00,,,0.00,0,Wunderground v.1.15,2013-02-17 09:43:00,
2013-02-17 03:44:00,8.2,-0.8,30.04,SE,142,4.0,7.0,66,0.00,,,0.00,0,Wunderground v.1.15,2013-02-17 09:44:00,
2013-02-17 03:48:00,8.2,-0.8,30.05,SE,142,5.0,7.0,66,0.00,,,0.00,0,Wunderground v.1.15,2013-02-17 09:48:00,
2013-02-17 03:49:00,8.4,-0.6,30.04,SE,142,4.0,7.0,66,0.00,,,0.00,0,Wunderground v.1.15,2013-02-17 09:49:00,
2013-02-17 03:53:00,8.3,-0.7,30.04,SE,142,5.0,7.0,66,0.00,,,0.00,0,Wunderground v.1.15,2013-02-17 09:53:00,
2013-02-17 03:54:00,8.3,-0.7,30.04,SE,142,4.0,7.0,66,0.00,,,0.00,0,Wunderground v.1.15,2013-02-17 09:54:00,
2013-02-17 03:55:00,8.3,-0.7,30.05,SE,142,3.0,7.0,66,0.00,,,0.00,0,Wunderground v.1.15,2013-02-17 09:55:00,
2013-02-17 03:58:00,8.2,-0.8,30.05,SE,142,4.0,8.0,66,0.00,,,0.00,0,Wunderground v.1.15,2013-02-17 09:58:00,
2013-02-17 03:59:00,8.2,-0.8,30.05,SE,142,4.0,8.0,66,0.00,,,0.00,0,Wunderground v.1.15,2013-02-17 09:59:00,
2013-02-17 04:00:00,8.3,-0.7,30.05,SE,142,3.0,4.0,66,0.00,,,0.00,0,Wunderground v.1.15,2013-02-17 10:00:00,
2013-02-17 04:04:00,8.2,-0.8,30.05,SE,142,3.0,7.0,66,0.00,,,0.00,0,Wunderground v.1.15,2013-02-17 10:04:00,
2013-02-17 04:05:00,8.2,-0.8,30.05,SE,142,5.0,9.0,66,0.00,,,0.00,0,Wunderground v.1.15,2013-02-17 10:05:00,
2013-02-17 04:09:00,8.3,-0.7,30.04,SE,142,4.0,9.0,66,0.00,,,0.00,0,Wunderground v.1.15,2013-02-17 10:09:00,
2013-02-17 04:10:00,8.3,-0.7,30.04,SE,142,3.0,4.0,66,0.00,,,0.00,0,Wunderground v.1.15,2013-02-17 10:10:00,
2013-02-17 04:14:00,8.2,-0.8,30.05,SE,141,4.0,12.0,66,0.00,,,0.00,0,Wunderground v.1.15,2013-02-17 10:14:00,
2013-02-17 04:15:00,8.2,-0.8,30.04,SE,141,4.0,12.0,66,0.00,,,0.00,0,Wunderground v.1.15,2013-02-17 10:15:00,
2013-02-17 04:19:00,8.3,-0.7,30.04,SE,141,5.0,12.0,66,0.00,,,0.00,0,Wunderground v.1.15,2013-02-17 10:19:00,
2013-02-17 04:20:00,8.2,-0.8,30.04,SE,141,5.0,5.0,66,0.00,,,0.00,0,Wunderground v.1.15,2013-02-17 10:20:00,
2013-02-17 04:21:00,8.3,-0.4,30.04,SE,141,4.0,6.0,67,0.00,,,0.00,0,Wunderground v.1.15,2013-02-17 10:21:00,
2013-02-17 04:24:00,8.3,-0.4,30.05,SE,141,3.0,8.0,67,0.00,,,0.00,0,Wunderground v.1.15,2013-02-17 10:24:00,
2013-02-17 04:25:00,8.3,-0.4,30.05,SE,141,5.0,8.0,67,0.00,,,0.00,0,Wunderground v.1.15,2013-02-17 10:25:00,
2013-02-17 04:26:00,8.3,-0.4,30.04,SE,141,5.0,8.0,67,0.00,,,0.00,0,Wunderground v.1.15,2013-02-17 10:26:00,
2013-02-17 04:29:00,8.4,-0.3,30.04,SE,141,3.0,8.0,67,0.00,,,0.00,0,Wunderground v.1.15,2013-02-17 10:29:00,
2013-02-17 04:31:00,8.4,-0.3,30.04,SE,141,4.0,6.0,67,0.00,,,0.00,0,Wunderground v.1.15,2013-02-17 10:31:00,
2013-02-17 04:34:00,8.3,-0.4,30.04,SE,141,3.0,6.0,67,0.00,,,0.00,0,Wunderground v.1.15,2013-02-17 10:34:00,
2013-02-17 04:36:00,8.4,-0.3,30.04,SE,141,5.0,6.0,67,0.00,,,0.00,0,Wunderground v.1.15,2013-02-17 10:36:00,
2013-02-17 04:39:00,8.4,-0.3,30.04,SE,141,3.0,6.0,67,0.00,,,0.00,0,Wunderground v.1.15,2013-02-17 10:39:00,
2013-02-17 04:41:00,8.4,-0.3,30.04,SE,141,3.0,6.0,67,0.00,,,0.00,0,Wunderground v.1.15,2013-02-17 10:41:00,
2013-02-17 04:42:00,8.3,-0.4,30.04,SE,141,7.0,7.0,67,0.00,,,0.00,0,Wunderground v.1.15,2013-02-17 10:42:00,
2013-02-17 04:45:00,8.3,-0.4,30.04,SE,141,4.0,8.0,67,0.00,,,0.00,0,Wunderground v.1.15,2013-02-17 10:45:00,
2013-02-17 04:46:00,8.4,-0.3,30.05,SE,141,4.0,8.0,67,0.00,,,0.00,0,Wunderground v.1.15,2013-02-17 10:46:00,
2013-02-17 04:47:00,8.4,-0.3,30.04,SE,141,6.0,8.0,67,0.00,,,0.00,0,Wunderground v.1.15,2013-02-17 10:47:00,
2013-02-17 04:50:00,8.3,-0.4,30.04,SE,141,5.0,5.0,67,0.00,,,0.00,0,Wunderground v.1.15,2013-02-17 10:50:00,
2013-02-17 04:52:00,8.3,-0.4,30.03,SE,141,6.0,9.0,67,0.00,,,0.00,0,Wunderground v.1.15,2013-02-17 10:52:00,
2013-02-17 04:55:00,8.4,-0.3,30.04,SE,141,5.0,9.0,67,0.00,,,0.00,0,Wunderground v.1.15,2013-02-17 10:55:00,
2013-02-17 04:57:00,8.3,-0.4,30.04,SE,141,3.0,9.0,67,0.00,,,0.00,0,Wunderground v.1.15,2013-02-17 10:57:00,
2013-02-17 05:00:00,8.4,-0.3,30.03,SE,141,5.0,6.0,67,0.00,,,0.00,0,Wunderground v.1.15,2013-02-17 11:00:00,
2013-02-17 05:02:00,8.4,-0.3,30.03,SE,141,4.0,8.0,67,0.00,,,0.00,0,Wunderground v.1.15,2013-02-17 11:02:00,
2013-02-17 05:05:00,8.3,-0.4,30.03,SE,141,4.0,8.0,67,0.00,,,0.00,0,Wunderground v.1.15,2013-02-17 11:05:00,
2013-02-17 05:07:00,8.3,-0.4,30.03,SE,141,4.0,8.0,67,0.00,,,0.00,0,Wunderground v.1.15,2013-02-17 11:07:00,
2013-02-17 05:11:00,8.3,-0.1,30.03,SE,141,6.0,7.0,68,0.00,,,0.00,0,Wunderground v.1.15,2013-02-17 11:11:00,
2013-02-17 05:12:00,8.4,-0.3,30.02,SE,141,6.0,8.0,67,0.00,,,0.00,0,Wunderground v.1.15,2013-02-17 11:12:00,
2013-02-17 05:16:00,8.4,0.0,30.02,SE,141,5.0,9.0,68,0.00,,,0.00,0,Wunderground v.1.15,2013-02-17 11:16:00,
2013-02-17 05:17:00,8.5,0.1,30.02,SE,141,5.0,9.0,68,0.00,,,0.00,0,Wunderground v.1.15,2013-02-17 11:17:00,
2013-02-17 05:21:00,8.5,0.1,30.02,SE,141,3.0,7.0,68,0.00,,,0.00,0,Wunderground v.1.15,2013-02-17 11:21:00,
2013-02-17 05:22:00,8.5,0.1,30.02,SE,141,7.0,7.0,68,0.00,,,0.00,0,Wunderground v.1.15,2013-02-17 11:22:00,
2013-02-17 05:26:00,8.5,0.1,30.02,SE,141,5.0,8.0,68,0.00,,,0.00,0,Wunderground v.1.15,2013-02-17 11:26:00,
2013-02-17 05:27:00,8.6,0.2,30.02,SE,141,6.0,8.0,68,0.00,,,0.00,0,Wunderground v.1.15,2013-02-17 11:27:00,
2013-02-17 05:28:00,8.5,0.1,30.02,SE,141,6.0,8.0,68,0.00,,,0.00,0,Wunderground v.1.15,2013-02-17 11:28:00,
2013-02-17 05:31:00,8.7,0.3,30.02,SE,141,5.0,8.0,68,0.00,,,0.00,0,Wunderground v.1.15,2013-02-17 11:31:00,
2013-02-17 05:32:00,8.7,0.3,30.02,SE,141,4.0,8.0,68,0.00,,,0.00,0,Wunderground v.1.15,2013-02-17 11:32:00,
2013-02-17 05:33:00,8.7,0.3,30.02,SE,141,8.0,8.0,68,0.00,,,0.00,0,Wunderground v.1.15,2013-02-17 11:33:00,
2013-02-17 05:36:00,8.7,0.3,30.03,SE,141,4.0,9.0,68,0.00,,,0.00,0,Wunderground v.1.15,2013-02-17 11:36:00,
2013-02-17 05:37:00,8.7,0.3,30.02,SE,141,5.0,9.0,68,0.00,,,0.00,0,Wunderground v.1.15,2013-02-17 11:37:00,
2013-02-17 05:38:00,8.7,0.3,30.02,SE,141,5.0,9.0,68,0.00,,,0.00,0,Wunderground v.1.15,2013-02-17 11:38:00,
2013-02-17 05:41:00,8.8,0.4,30.02,SE,140,6.0,9.0,68,0.00,,,0.00,0,Wunderground v.1.15,2013-02-17 11:41:00,
2013-02-17 05:43:00,8.8,0.4,30.02,SE,140,5.0,9.0,68,0.00,,,0.00,0,Wunderground v.1.15,2013-02-17 11:43:00,
2013-02-17 05:46:00,8.8,0.4,30.02,SE,140,7.0,10.0,68,0.00,,,0.00,0,Wunderground v.1.15,2013-02-17 11:46:00,
2013-02-17 05:48:00,8.8,0.4,30.02,SE,140,4.0,10.0,68,0.00,,,0.00,0,Wunderground v.1.15,2013-02-17 11:48:00,
2013-02-17 05:51:00,8.9,0.8,30.02,SE,140,5.0,8.0,69,0.00,,,0.00,0,Wunderground v.1.15,2013-02-17 11:51:00,
2013-02-17 05:53:00,9.0,0.9,30.01,SE,140,6.0,8.0,69,0.00,,,0.00,0,Wunderground v.1.15,2013-02-17 11:53:00,
2013-02-17 05:54:00,9.0,0.9,30.02,SE,140,5.0,8.0,69,0.00,,,0.00,0,Wunderground v.1.15,2013-02-17 11:54:00,
2013-02-17 05:56:00,9.2,1.1,30.01,SE,140,6.0,8.0,69,0.00,,,0.00,0,Wunderground v.1.15,2013-02-17 11:56:00,
2013-02-17 05:58:00,9.2,1.1,30.01,SE,140,3.0,8.0,69,0.00,,,0.00,0,Wunderground v.1.15,2013-02-17 11:58:00,
2013-02-17 05:59:00,9.2,1.1,30.01,SE,140,4.0,8.0,69,0.00,,,0.00,0,Wunderground v.1.15,2013-02-17 11:59:00,
2013-02-17 06:01:00,9.4,1.3,30.01,SE,139,6.0,12.0,69,0.00,,,0.00,0,Wunderground v.1.15,2013-02-17 12:01:00,
2013-02-17 06:03:00,9.5,1.4,30.01,SE,139,4.0,12.0,69,0.00,,,0.00,0,Wunderground v.1.15,2013-02-17 12:03:00,
2013-02-17 06:04:00,9.5,1.4,30.01,SE,139,5.0,12.0,69,0.00,,,0.00,0,Wunderground v.1.15,2013-02-17 12:04:00,
2013-02-17 06:07:00,9.7,1.6,30.01,SE,139,7.0,12.0,69,0.00,,,0.00,0,Wunderground v.1.15,2013-02-17 12:07:00,
2013-02-17 06:08:00,9.8,1.7,30.01,SE,139,5.0,12.0,69,0.00,,,0.00,0,Wunderground v.1.15,2013-02-17 12:08:00,
2013-02-17 06:09:00,9.7,1.6,30.01,SE,139,6.0,12.0,69,0.00,,,0.00,0,Wunderground v.1.15,2013-02-17 12:09:00,
2013-02-17 06:12:00,9.7,1.6,30.01,SE,139,5.0,8.0,69,0.00,,,0.00,0,Wunderground v.1.15,2013-02-17 12:12:00,
2013-02-17 06:13:00,9.7,1.6,30.01,SE,139,6.0,9.0,69,0.00,,,0.00,0,Wunderground v.1.15,2013-02-17 12:13:00,
2013-02-17 06:14:00,9.8,1.7,30.01,SE,139,3.0,9.0,69,0.00,,,0.00,0,Wunderground v.1.15,2013-02-17 12:14:00,
2013-02-17 06:17:00,9.7,1.6,30.01,SE,141,5.0,11.0,69,0.00,,,0.00,0,Wunderground v.1.15,2013-02-17 12:17:00,
2013-02-17 06:18:00,9.7,1.6,30.01,SE,141,6.0,11.0,69,0.00,,,0.00,0,Wunderground v.1.15,2013-02-17 12:18:00,
2013-02-17 06:19:00,9.7,1.6,30.01,SE,141,4.0,11.0,69,0.00,,,0.00,0,Wunderground v.1.15,2013-02-17 12:19:00,
2013-02-17 06:22:00,9.7,1.6,30.01,SE,141,4.0,7.0,69,0.00,,,0.00,0,Wunderground v.1.15,2013-02-17 12:22:00,
2013-02-17 06:23:00,9.6,1.5,30.01,SE,141,4.0,7.0,69,0.00,,,0.00,0,Wunderground v.1.15,2013-02-17 12:23:00,
2013-02-17 06:24:00,9.6,1.5,30.01,SE,141,6.0,7.0,69,0.00,,,0.00,0,Wunderground v.1.15,2013-02-17 12:24:00,
2013-02-17 06:25:00,9.6,1.5,30.01,SE,141,6.0,10.0,69,0.00,,,0.00,0,Wunderground v.1.15,2013-02-17 12:25:00,
2013-02-17 06:27:00,9.6,1.5,30.01,SE,140,5.0,10.0,69,0.00,,,0.00,0,Wunderground v.1.15,2013-02-17 12:27:00,
2013-02-17 06:29:00,9.6,1.5,30.01,SE,140,5.0,10.0,69,0.00,,,0.00,0,Wunderground v.1.15,2013-02-17 12:29:00,
2013-02-17 06:30:00,9.6,1.5,30.00,SE,140,6.0,7.0,69,0.00,,,0.00,0,Wunderground v.1.15,2013-02-17 12:30:00,
2013-02-17 06:32:00,9.6,1.5,30.00,SE,140,4.0,7.0,69,0.00,,,0.00,0,Wunderground v.1.15,2013-02-17 12:32:00,
2013-02-17 06:34:00,9.5,1.4,30.00,SE,140,5.0,8.0,69,0.00,,,0.00,0,Wunderground v.1.15,2013-02-17 12:34:00,
2013-02-17 06:35:00,9.5,1.4,30.01,SE,141,8.0,9.0,69,0.00,,,0.00,0,Wunderground v.1.15,2013-02-17 12:35:00,
2013-02-17 06:37:00,9.5,1.7,30.00,SE,140,3.0,9.0,70,0.00,,,0.00,0,Wunderground v.1.15,2013-02-17 12:37:00,
2013-02-17 06:39:00,9.6,1.8,30.01,SE,139,4.0,9.0,70,0.00,,,0.00,0,Wunderground v.1.15,2013-02-17 12:39:00,
2013-02-17 06:40:00,9.7,1.9,30.00,SE,139,4.0,9.0,70,0.00,,,0.00,0,Wunderground v.1.15,2013-02-17 12:40:00,
2013-02-17 06:43:00,9.9,2.1,30.00,SE,139,5.0,9.0,70,0.00,,,0.00,0,Wunderground v.1.15,2013-02-17 12:43:00,
2013-02-17 06:44:00,9.9,2.1,30.00,SE,139,5.0,9.0,70,0.00,,,0.00,0,Wunderground v.1.15,2013-02-17 12:44:00,
2013-02-17 06:45:00,9.9,2.1,29.99,SE,139,5.0,9.0,70,0.00,,,0.00,0,Wunderground v.1.15,2013-02-17 12:45:00,
2013-02-17 06:48:00,9.8,2.0,30.00,SE,139,4.0,9.0,70,0.00,,,0.00,0,Wunderground v.1.15,2013-02-17 12:48:00,
2013-02-17 06:49:00,9.9,2.1,30.00,SE,139,6.0,9.0,70,0.00,,,0.00,0,Wunderground v.1.15,2013-02-17 12:49:00,
2013-02-17 06:50:00,9.9,2.1,29.99,SE,139,3.0,6.0,70,0.00,,,0.00,0,Wunderground v.1.15,2013-02-17 12:50:00,
2013-02-17 06:53:00,9.9,2.1,29.99,SE,139,6.0,8.0,70,0.00,,,0.00,0,Wunderground v.1.15,2013-02-17 12:53:00,
2013-02-17 06:54:00,9.9,2.1,29.99,SE,139,5.0,8.0,70,0.00,,,0.00,0,Wunderground v.1.15,2013-02-17 12:54:00,
2013-02-17 06:55:00,9.9,2.1,29.99,SE,139,5.0,8.0,70,0.00,,,0.00,0,Wunderground v.1.15,2013-02-17 12:55:00,
2013-02-17 06:58:00,9.9,2.1,29.99,SE,138,5.0,8.0,70,0.00,,,0.00,0,Wunderground v.1.15,2013-02-17 12:58:00,
2013-02-17 06:59:00,10.0,2.2,29.99,SE,138,6.0,8.0,70,0.00,,,0.00,0,Wunderground v.1.15,2013-02-17 12:59:00,
2013-02-17 07:00:00,10.0,2.2,29.99,SE,138,4.0,6.0,70,0.00,,,0.00,0,Wunderground v.1.15,2013-02-17 13:00:00,
2013-02-17 07:01:00,10.0,2.2,29.98,SE,138,4.0,6.0,70,0.00,,,0.00,0,Wunderground v.1.15,2013-02-17 13:01:00,
2013-02-17 07:03:00,9.9,2.1,29.98,SE,138,5.0,6.0,70,0.00,,,0.00,0,Wunderground v.1.15,2013-02-17 13:03:00,
2013-02-17 07:04:00,9.9,2.1,29.98,SE,138,4.0,6.0,70,0.00,,,0.00,0,Wunderground v.1.15,2013-02-17 13:04:00,
2013-02-17 07:06:00,9.9,2.1,29.98,SE,138,4.0,6.0,70,0.00,,,0.00,0,Wunderground v.1.15,2013-02-17 13:06:00,
2013-02-17 07:09:00,9.9,2.1,29.98,SE,138,3.0,7.0,70,0.00,,,0.00,0,Wunderground v.1.15,2013-02-17 13:09:00,
2013-02-17 07:10:00,9.9,2.1,29.98,SE,138,3.0,3.0,70,0.00,,,0.00,0,Wunderground v.1.15,2013-02-17 13:10:00,
2013-02-17 07:11:00,9.9,2.1,29.98,SE,138,4.0,5.0,70,0.00,,,0.00,0,Wunderground v.1.15,2013-02-17 13:11:00,
2013-02-17 07:14:00,9.8,2.0,29.98,SE,138,3.0,6.0,70,0.00,,,0.00,0,Wunderground v.1.15,2013-02-17 13:14:00,
2013-02-17 07:15:00,9.8,2.0,29.98,SE,138,5.0,6.0,70,0.00,,,0.00,0,Wunderground v.1.15,2013-02-17 13:15:00,
2013-02-17 07:16:00,9.8,2.3,29.97,SE,138,4.0,6.0,71,0.00,,,0.00,0,Wunderground v.1.15,2013-02-17 13:16:00,
2013-02-17 07:19:00,9.9,2.4,29.97,SE,138,4.0,8.0,71,0.00,,,0.00,0,Wunderground v.1.15,2013-02-17 13:19:00,
2013-02-17 07:20:00,9.9,2.4,29.97,SE,138,6.0,6.0,71,0.00,,,0.00,0,Wunderground v.1.15,2013-02-17 13:20:00,
2013-02-17 07:21:00,9.9,2.4,29.97,SE,138,4.0,6.0,71,0.00,,,0.00,0,Wunderground v.1.15,2013-02-17 13:21:00,
2013-02-17 07:24:00,10.0,2.5,29.97,SE,138,5.0,7.0,71,0.00,,,0.00,0,Wunderground v.1.15,2013-02-17 13:24:00,
2013-02-17 07:25:00,10.0,2.5,29.97,SE,138,1.0,7.0,71,0.00,,,0.00,0,Wunderground v.1.15,2013-02-17 13:25:00,
2013-02-17 07:26:00,10.0,2.5,29.97,SE,138,6.0,7.0,71,0.00,,,0.00,0,Wunderground v.1.15,2013-02-17 13:26:00,
2013-02-17 07:27:00,10.0,2.5,29.97,SE,138,4.0,7.0,71,0.00,,,0.00,0,Wunderground v.1.15,2013-02-17 13:27:00,
2013-02-17 07:29:00,10.1,2.6,29.97,SE,138,3.0,8.0,71,0.00,,,0.00,0,Wunderground v.1.15,2013-02-17 13:29:00,
2013-02-17 07:31:00,10.4,3.2,29.97,SE,138,4.0,8.0,72,0.00,,,0.00,0,Wunderground v.1.15,2013-02-17 13:31:00,
2013-02-17 07:32:00,10.5,3.3,29.98,SE,138,6.0,8.0,72,0.00,,,0.00,0,Wunderground v.1.15,2013-02-17 13:32:00,
2013-02-17 07:34:00,10.7,3.4,29.97,SE,138,3.0,8.0,72,0.00,,,0.00,0,Wunderground v.1.15,2013-02-17 13:34:00,
2013-02-17 07:36:00,10.8,3.5,29.97,SE,138,4.0,8.0,72,0.00,,,0.00,0,Wunderground v.1.15,2013-02-17 13:36:00,
2013-02-17 07:37:00,10.9,3.6,29.98,SE,138,6.0,8.0,72,0.00,,,0.00,0,Wunderground v.1.15,2013-02-17 13:37:00,
2013-02-17 07:39:00,11.0,3.7,29.98,SE,138,4.0,8.0,72,0.00,,,0.00,0,Wunderground v.1.15,2013-02-17 13:39:00,
2013-02-17 07:41:00,11.1,3.8,29.98,SE,138,4.0,6.0,72,0.00,,,0.00,0,Wunderground v.1.15,2013-02-17 13:41:00,
2013-02-17 07:42:00,11.4,4.1,29.98,SE,139,7.0,9.0,72,0.00,,,0.00,0,Wunderground v.1.15,2013-02-17 13:42:00,
2013-02-17 07:44:00,11.5,4.2,29.97,SE,139,4.0,9.0,72,0.00,,,0.00,0,Wunderground v.1.15,2013-02-17 13:44:00,
2013-02-17 07:46:00,11.7,4.4,29.98,SE,138,8.0,10.0,72,0.00,,,0.00,0,Wunderground v.1.15,2013-02-17 13:46:00,
2013-02-17 07:47:00,11.9,4.9,29.98,SE,138,5.0,10.0,73,0.00,,,0.00,0,Wunderground v.1.15,2013-02-17 13:47:00,
2013-02-17 07:48:00,11.9,4.9,29.98,SE,138,6.0,10.0,73,0.00,,,0.00,0,Wunderground v.1.15,2013-02-17 13:48:00,
2013-02-17 07:49:00,12.1,5.1,29.98,SE,138,7.0,10.0,73,0.00,,,0.00,0,Wunderground v.1.15,2013-02-17 13:49:00,
2013-02-17 07:51:00,12.3,5.3,29.98,SE,138,4.0,10.0,73,0.00,,,0.00,0,Wunderground v.1.15,2013-02-17 13:51:00,
2013-02-17 07:52:00,12.3,5.3,29.97,SE,138,3.0,10.0,73,0.00,,,0.00,0,Wunderground v.1.15,2013-02-17 13:52:00,
2013-02-17 07:53:00,12.4,5.1,29.98,SE,138,7.0,10.0,72,0.00,,,0.00,0,Wunderground v.1.15,2013-02-17 13:53:00,
2013-02-17 07:54:00,12.5,5.2,29.97,SE,139,6.0,10.0,72,0.00,,,0.00,0,Wunderground v.1.15,2013-02-17 13:54:00,
2013-02-17 07:56:00,12.6,5.3,29.98,SE,139,2.0,10.0,72,0.00,,,0.00,0,Wunderground v.1.15,2013-02-17 13:56:00,
2013-02-17 07:57:00,12.6,5.3,29.98,SE,139,5.0,10.0,72,0.00,,,0.00,0,Wunderground v.1.15,2013-02-17 13:57:00,
2013-02-17 07:58:00,12.6,5.3,29.98,SE,139,6.0,10.0,72,0.00,,,0.00,0,Wunderground v.1.15,2013-02-17 13:58:00,
2013-02-17 08:00:00,12.6,5.3,29.97,SE,139,7.0,7.0,72,0.00,,,0.00,0,Wunderground v.1.15,2013-02-17 14:00:00,
2013-02-17 08:01:00,12.7,5.4,29.97,SE,139,6.0,8.0,72,0.00,,,0.00,0,Wunderground v.1.15,2013-02-17 14:01:00,
2013-02-17 08:02:00,12.7,5.4,29.97,SE,139,4.0,8.0,72,0.00,,,0.00,0,Wunderground v.1.15,2013-02-17 14:02:00,
2013-02-17 08:04:00,12.8,5.5,29.97,SE,139,7.0,9.0,72,0.00,,,0.00,0,Wunderground v.1.15,2013-02-17 14:04:00,
2013-02-17 08:05:00,12.8,5.5,29.97,SE,139,6.0,9.0,72,0.00,,,0.00,0,Wunderground v.1.15,2013-02-17 14:05:00,
2013-02-17 08:06:00,12.8,5.5,29.97,SE,139,6.0,10.0,72,0.00,,,0.00,0,Wunderground v.1.15,2013-02-17 14:06:00,
2013-02-17 08:07:00,12.9,5.6,29.97,SE,139,6.0,10.0,72,0.00,,,0.00,0,Wunderground v.1.15,2013-02-17 14:07:00,
2013-02-17 08:09:00,12.9,5.6,29.97,SE,139,4.0,10.0,72,0.00,,,0.00,0,Wunderground v.1.15,2013-02-17 14:09:00,
2013-02-17 08:10:00,13.0,5.7,29.97,SE,139,6.0,7.0,72,0.00,,,0.00,0,Wunderground v.1.15,2013-02-17 14:10:00,
2013-02-17 08:11:00,13.1,5.8,29.97,SE,140,7.0,11.0,72,0.00,,,0.00,0,Wunderground v.1.15,2013-02-17 14:11:00,
2013-02-17 08:13:00,13.1,5.8,29.97,SE,140,6.0,11.0,72,0.00,,,0.00,0,Wunderground v.1.15,2013-02-17 14:13:00,
2013-02-17 08:14:00,13.2,5.9,29.97,SE,140,6.0,11.0,72,0.00,,,0.00,0,Wunderground v.1.15,2013-02-17 14:14:00,
2013-02-17 08:15:00,13.2,5.9,29.97,SE,138,8.0,11.0,72,0.00,,,0.00,0,Wunderground v.1.15,2013-02-17 14:15:00,
2013-02-17 08:16:00,13.3,6.0,29.97,SE,137,6.0,11.0,72,0.00,,,0.00,0,Wunderground v.1.15,2013-02-17 14:16:00,
2013-02-17 08:18:00,13.3,6.0,29.97,SE,138,7.0,11.0,72,0.00,,,0.00,0,Wunderground v.1.15,2013-02-17 14:18:00,
2013-02-17 08:19:00,13.5,6.1,29.97,SE,139,7.0,11.0,72,0.00,,,0.00,0,Wunderground v.1.15,2013-02-17 14:19:00,
2013-02-17 08:20:00,13.5,6.1,29.97,SE,139,6.0,8.0,72,0.00,,,0.00,0,Wunderground v.1.15,2013-02-17 14:20:00,
2013-02-17 08:21:00,13.7,6.3,29.97,SE,139,8.0,10.0,72,0.00,,,0.00,0,Wunderground v.1.15,2013-02-17 14:21:00,
2013-02-17 08:23:00,13.7,6.3,29.97,SE,141,7.0,14.0,72,0.00,,,0.00,0,Wunderground v.1.15,2013-02-17 14:23:00,
2013-02-17 08:24:00,13.9,6.5,29.97,SE,141,7.0,14.0,72,0.00,,,0.00,0,Wunderground v.1.15,2013-02-17 14:24:00,
2013-02-17 08:25:00,14.0,6.6,29.97,SE,142,8.0,14.0,72,0.00,,,0.00,0,Wunderground v.1.15,2013-02-17 14:25:00,
2013-02-17 08:26:00,14.0,6.6,29.97,SSE,151,9.0,14.0,72,0.00,,,0.00,0,Wunderground v.1.15,2013-02-17 14:26:00,
2013-02-17 08:28:00,14.2,6.8,29.97,SSE,148,8.0,14.0,72,0.00,,,0.00,0,Wunderground v.1.15,2013-02-17 14:28:00,
2013-02-17 08:30:00,14.2,6.5,29.97,SE,146,3.0,4.0,71,0.00,,,0.00,0,Wunderground v.1.15,2013-02-17 14:30:00,
2013-02-17 08:31:00,14.3,6.9,29.97,SE,146,7.0,10.0,72,0.00,,,0.00,0,Wunderground v.1.15,2013-02-17 14:31:00,
2013-02-17 08:33:00,14.4,6.7,29.97,SE,146,12.0,12.0,71,0.00,,,0.00,0,Wunderground v.1.15,2013-02-17 14:33:00,
2013-02-17 08:35:00,14.6,6.9,29.97,SE,146,12.0,12.0,71,0.00,,,0.00,0,Wunderground v.1.15,2013-02-17 14:35:00,
2013-02-17 08:36:00,14.7,7.0,29.97,SE,142,11.0,15.0,71,0.00,,,0.00,0,Wunderground v.1.15,2013-02-17 14:36:00,
2013-02-17 08:38:00,14.9,7.2,29.97,SE,145,10.0,15.0,71,0.00,,,0.00,0,Wunderground v.1.15,2013-02-17 14:38:00,
2013-02-17 08:40:00,15.0,7.3,29.97,SE,143,9.0,9.0,71,0.00,,,0.00,0,Wunderground v.1.15,2013-02-17 14:40:00,
2013-02-17 08:41:00,15.1,7.4,29.97,SE,142,8.0,12.0,71,0.00,,,0.00,0,Wunderground v.1.15,2013-02-17 14:41:00,
2013-02-17 08:44:00,15.3,7.6,29.97,SE,143,12.0,15.0,71,0.00,,,0.00,0,Wunderground v.1.15,2013-02-17 14:44:00,
2013-02-17 08:45:00,15.4,7.7,29.97,SE,145,16.0,17.0,71,0.00,,,0.00,0,Wunderground v.1.15,2013-02-17 14:45:00,
2013-02-17 08:46:00,15.5,7.5,29.97,SSE,147,12.0,17.0,70,0.00,,,0.00,0,Wunderground v.1.15,2013-02-17 14:46:00,
2013-02-17 08:47:00,15.5,7.5,29.97,SE,144,13.0,17.0,70,0.00,,,0.00,0,Wunderground v.1.15,2013-02-17 14:47:00,
2013-02-17 08:49:00,15.6,7.6,29.97,SE,142,12.0,18.0,70,0.00,,,0.00,0,Wunderground v.1.15,2013-02-17 14:49:00,
2013-02-17 08:50:00,15.6,7.6,29.97,SSE,150,8.0,15.0,70,0.00,,,0.00,0,Wunderground v.1.15,2013-02-17 14:50:00,
2013-02-17 08:51:00,15.6,7.6,29.97,SE,142,10.0,15.0,70,0.00,,,0.00,0,Wunderground v.1.15,2013-02-17 14:51:00,
2013-02-17 08:52:00,15.7,7.6,29.97,SE,141,8.0,15.0,70,0.00,,,0.00,0,Wunderground v.1.15,2013-02-17 14:52:00,
2013-02-17 08:54:00,15.7,7.6,29.97,SE,139,9.0,15.0,70,0.00,,,0.00,0,Wunderground v.1.15,2013-02-17 14:54:00,
2013-02-17 08:56:00,15.9,7.8,29.97,SE,143,11.0,15.0,70,0.00,,,0.00,0,Wunderground v.1.15,2013-02-17 14:56:00,
2013-02-17 08:58:00,16.0,7.9,29.97,SE,146,11.0,15.0,70,0.00,,,0.00,0,Wunderground v.1.15,2013-02-17 14:58:00,
2013-02-17 08:59:00,16.0,7.9,29.97,SSE,151,7.0,15.0,70,0.00,,,0.00,0,Wunderground v.1.15,2013-02-17 14:59:00,
2013-02-17 09:01:00,16.2,8.1,29.97,SSE,151,9.0,11.0,70,0.00,,,0.00,0,Wunderground v.1.15,2013-02-17 15:01:00,
2013-02-17 09:03:00,16.3,7.9,29.97,SE,144,10.0,12.0,69,0.00,,,0.00,0,Wunderground v.1.15,2013-02-17 15:03:00,
2013-02-17 09:04:00,16.4,8.0,29.97,SSE,157,8.0,16.0,69,0.00,,,0.00,0,Wunderground v.1.15,2013-02-17 15:04:00,
2013-02-17 09:06:00,16.5,8.1,29.96,SE,144,19.0,21.0,69,0.00,,,0.00,0,Wunderground v.1.15,2013-02-17 15:06:00,
2013-02-17 09:08:00,16.5,8.1,29.97,SE,138,10.0,21.0,69,0.00,,,0.00,0,Wunderground v.1.15,2013-02-17 15:08:00,
2013-02-17 09:09:00,16.6,8.2,29.97,SE,139,11.0,21.0,69,0.00,,,0.00,0,Wunderground v.1.15,2013-02-17 15:09:00,
2013-02-17 09:11:00,16.7,8.3,29.97,SE,137,9.0,17.0,69,0.00,,,0.00,0,Wunderground v.1.15,2013-02-17 15:11:00,
2013-02-17 09:13:00,16.8,8.1,29.97,SE,142,6.0,17.0,68,0.00,,,0.00,0,Wunderground v.1.15,2013-02-17 15:13:00,
2013-02-17 09:15:00,16.9,8.2,29.97,SE,137,9.0,17.0,68,0.00,,,0.00,0,Wunderground v.1.15,2013-02-17 15:15:00,
2013-02-17 09:16:00,17.0,8.6,29.96,SE,145,6.0,17.0,69,0.00,,,0.00,0,Wunderground v.1.15,2013-02-17 15:16:00,
2013-02-17 09:18:00,17.1,8.3,29.97,SE,140,11.0,17.0,68,0.00,,,0.00,0,Wunderground v.1.15,2013-02-17 15:18:00,
2013-02-17 09:20:00,17.1,8.3,29.97,SE,146,12.0,14.0,68,0.00,,,0.00,0,Wunderground v.1.15,2013-02-17 15:20:00,
2013-02-17 09:21:00,17.2,8.4,29.97,SE,145,7.0,14.0,68,0.00,,,0.00,0,Wunderground v.1.15,2013-02-17 15:21:00,
2013-02-17 09:23:00,17.3,8.5,29.96,SE,129,9.0,18.0,68,0.00,,,0.00,0,Wunderground v.1.15,2013-02-17 15:23:00,
2013-02-17 09:25:00,17.3,8.5,29.96,SE,145,9.0,18.0,68,0.00,,,0.00,0,Wunderground v.1.15,2013-02-17 15:25:00,
2013-02-17 09:26:00,17.2,8.4,29.95,SSE,147,8.0,18.0,68,0.00,,,0.00,0,Wunderground v.1.15,2013-02-17 15:26:00,
2013-02-17 09:29:00,17.3,8.2,29.95,SE,141,10.0,20.0,67,0.00,,,0.00,0,Wunderground v.1.15,2013-02-17 15:29:00,
2013-02-17 09:30:00,17.4,8.3,29.96,SSE,150,7.0,13.0,67,0.00,,,0.00,0,Wunderground v.1.15,2013-02-17 15:30:00,
2013-02-17 09:31:00,17.4,8.3,29.96,SE,146,11.0,15.0,67,0.00,,,0.00,0,Wunderground v.1.15,2013-02-17 15:31:00,
2013-02-17 09:32:00,17.4,8.3,29.96,SE,145,8.0,15.0,67,0.00,,,0.00,0,Wunderground v.1.15,2013-02-17 15:32:00,
2013-02-17 09:34:00,17.6,8.5,29.96,SE,142,7.0,15.0,67,0.00,,,0.00,0,Wunderground v.1.15,2013-02-17 15:34:00,
2013-02-17 09:35:00,17.7,8.6,29.96,SE,141,10.0,15.0,67,0.00,,,0.00,0,Wunderground v.1.15,2013-02-17 15:35:00,
2013-02-17 09:36:00,17.6,8.5,29.96,SE,144,19.0,19.0,67,0.00,,,0.00,0,Wunderground v.1.15,2013-02-17 15:36:00,
2013-02-17 09:37:00,17.7,8.6,29.96,SSE,156,10.0,19.0,67,0.00,,,0.00,0,Wunderground v.1.15,2013-02-17 15:37:00,
2013-02-17 09:39:00,17.8,8.7,29.96,SSE,154,13.0,19.0,67,0.00,,,0.00,0,Wunderground v.1.15,2013-02-17 15:39:00,
2013-02-17 09:40:00,17.9,8.8,29.95,SE,145,5.0,8.0,67,0.00,,,0.00,0,Wunderground v.1.15,2013-02-17 15:40:00,
2013-02-17 09:41:00,18.0,8.9,29.96,SE,145,9.0,10.0,67,0.00,,,0.00,0,Wunderground v.1.15,2013-02-17 15:41:00,
2013-02-17 09:42:00,18.0,8.9,29.96,SE,144,7.0,16.0,67,0.00,,,0.00,0,Wunderground v.1.15,2013-02-17 15:42:00,
2013-02-17 09:44:00,18.2,9.1,29.95,South,169,9.0,16.0,67,0.00,,,0.00,0,Wunderground v.1.15,2013-02-17 15:44:00,
2013-02-17 09:45:00,18.3,9.2,29.96,SSE,154,13.0,16.0,67,0.00,,,0.00,0,Wunderground v.1.15,2013-02-17 15:45:00,
2013-02-17 09:46:00,18.4,9.3,29.96,SE,127,9.0,16.0,67,0.00,,,0.00,0,Wunderground v.1.15,2013-02-17 15:46:00,
2013-02-17 09:47:00,18.5,9.0,29.96,SE,145,13.0,17.0,66,0.00,,,0.00,0,Wunderground v.1.15,2013-02-17 15:47:00,
2013-02-17 09:49:00,18.6,9.1,29.96,SE,144,14.0,17.0,66,0.00,,,0.00,0,Wunderground v.1.15,2013-02-17 15:49:00,
2013-02-17 09:50:00,18.7,9.2,29.95,SE,143,7.0,11.0,66,0.00,,,0.00,0,Wunderground v.1.15,2013-02-17 15:50:00,
2013-02-17 09:51:00,18.8,9.3,29.95,SSE,155,10.0,11.0,66,0.00,,,0.00,0,Wunderground v.1.15,2013-02-17 15:51:00,
2013-02-17 09:52:00,18.9,9.4,29.95,SE,146,9.0,15.0,66,0.00,,,0.00,0,Wunderground v.1.15,2013-02-17 15:52:00,
2013-02-17 09:54:00,19.0,9.5,29.95,SSE,149,12.0,15.0,66,0.00,,,0.00,0,Wunderground v.1.15,2013-02-17 15:54:00,
2013-02-17 09:56:00,19.1,9.3,29.95,SE,144,9.0,15.0,65,0.00,,,0.00,0,Wunderground v.1.15,2013-02-17 15:56:00,
2013-02-17 09:57:00,19.2,9.4,29.95,SE,144,7.0,15.0,65,0.00,,,0.00,0,Wunderground v.1.15,2013-02-17 15:57:00,
2013-02-17 09:59:00,19.5,9.6,29.95,SE,145,13.0,15.0,65,0.00,,,0.00,0,Wunderground v.1.15,2013-02-17 15:59:00,
2013-02-17 10:01:00,19.6,9.7,29.95,SSE,160,9.0,13.0,65,0.00,,,0.00,0,Wunderground v.1.15,2013-02-17 16:01:00,
2013-02-17 10:02:00,19.7,9.8,29.95,SE,135,8.0,13.0,65,0.00,,,0.00,0,Wunderground v.1.15,2013-02-17 16:02:00,
2013-02-17 10:04:00,19.8,9.6,29.95,SE,138,10.0,13.0,64,0.00,,,0.00,0,Wunderground v.1.15,2013-02-17 16:04:00,
2013-02-17 10:06:00,19.9,9.7,29.95,SE,142,12.0,13.0,64,0.00,,,0.00,0,Wunderground v.1.15,2013-02-17 16:06:00,
2013-02-17 10:07:00,20.0,9.8,29.95,SE,142,15.0,15.0,64,0.00,,,0.00,0,Wunderground v.1.15,2013-02-17 16:07:00,
2013-02-17 10:10:00,20.2,10.0,29.94,SE,142,5.0,5.0,64,0.00,,,0.00,0,Wunderground v.1.15,2013-02-17 16:10:00,
2013-02-17 10:11:00,20.3,10.1,29.94,SE,143,11.0,12.0,64,0.00,,,0.00,0,Wunderground v.1.15,2013-02-17 16:11:00,
2013-02-17 10:12:00,20.3,10.1,29.94,SE,144,7.0,12.0,64,0.00,,,0.00,0,Wunderground v.1.15,2013-02-17 16:12:00,
2013-02-17 10:15:00,20.5,9.9,29.94,SE,130,14.0,17.0,63,0.00,,,0.00,0,Wunderground v.1.15,2013-02-17 16:15:00,
2013-02-17 10:16:00,20.6,10.0,29.94,SSE,149,7.0,17.0,63,0.00,,,0.00,0,Wunderground v.1.15,2013-02-17 16:16:00,
2013-02-17 10:17:00,20.6,10.0,29.94,SSE,148,6.0,17.0,63,0.00,,,0.00,0,Wunderground v.1.15,2013-02-17 16:17:00,
2013-02-17 10:20:00,20.9,10.3,29.94,SSE,148,10.0,11.0,63,0.00,,,0.00,0,Wunderground v.1.15,2013-02-17 16:20:00,
2013-02-17 10:22:00,21.1,10.5,29.94,SSE,150,15.0,20.0,63,0.00,,,0.00,0,Wunderground v.1.15,2013-02-17 16:22:00,
2013-02-17 10:25:00,21.3,10.7,29.93,SE,144,9.0,20.0,63,0.00,,,0.00,0,Wunderground v.1.15,2013-02-17 16:25:00,
2013-02-17 10:27:00,21.6,10.6,29.94,SE,144,9.0,20.0,62,0.00,,,0.00,0,Wunderground v.1.15,2013-02-17 16:27:00,
2013-02-17 10:30:00,21.9,10.5,29.93,SSE,148,11.0,14.0,61,0.00,,,0.00,0,Wunderground v.1.15,2013-02-17 16:30:00,
2013-02-17 10:32:00,21.9,10.5,29.93,SSE,160,7.0,14.0,61,0.00,,,0.00,0,Wunderground v.1.15,2013-02-17 16:32:00,
2013-02-17 10:35:00,22.0,10.2,29.93,SE,144,10.0,14.0,60,0.00,,,0.00,0,Wunderground v.1.15,2013-02-17 16:35:00,
2013-02-17 10:37:00,22.1,10.3,29.93,SE,143,6.0,14.0,60,0.00,,,0.00,0,Wunderground v.1.15,2013-02-17 16:37:00,
2013-02-17 10:38:00,22.2,10.4,29.93,SE,143,9.0,14.0,60,0.00,,,0.00,0,Wunderground v.1.15,2013-02-17 16:38:00,
2013-02-17 10:40:00,22.4,10.6,29.93,SSE,158,6.0,13.0,60,0.00,,,0.00,0,Wunderground v.1.15,2013-02-17 16:40:00,
2013-02-17 10:42:00,22.4,10.2,29.93,SSE,147,13.0,13.0,59,0.00,,,0.00,0,Wunderground v.1.15,2013-02-17 16:42:00,
2013-02-17 10:43:00,22.5,10.3,29.93,SE,137,15.0,16.0,59,0.00,,,0.00,0,Wunderground v.1.15,2013-02-17 16:43:00,
2013-02-17 10:46:00,22.6,10.4,29.93,SSE,154,9.0,16.0,59,0.00,,,0.00,0,Wunderground v.1.15,2013-02-17 16:46:00,
2013-02-17 10:47:00,22.6,10.4,29.93,SSE,161,9.0,16.0,59,0.00,,,0.00,0,Wunderground v.1.15,2013-02-17 16:47:00,
2013-02-17 10:48:00,22.6,10.4,29.93,SSE,152,9.0,16.0,59,0.00,,,0.00,0,Wunderground v.1.15,2013-02-17 16:48:00,
2013-02-17 10:51:00,22.7,10.5,29.93,SE,141,7.0,15.0,59,0.00,,,0.00,0,Wunderground v.1.15,2013-02-17 16:51:00,
2013-02-17 10:52:00,22.7,10.5,29.94,SE,145,16.0,17.0,59,0.00,,,0.00,0,Wunderground v.1.15,2013-02-17 16:52:00,
2013-02-17 10:53:00,22.7,10.1,29.93,SE,142,12.0,17.0,58,0.00,,,0.00,0,Wunderground v.1.15,2013-02-17 16:53:00,
2013-02-17 10:54:00,22.7,10.5,29.94,SSE,164,7.0,17.0,59,0.00,,,0.00,0,Wunderground v.1.15,2013-02-17 16:54:00,
2013-02-17 10:56:00,22.7,10.5,29.93,SE,141,15.0,17.0,59,0.00,,,0.00,0,Wunderground v.1.15,2013-02-17 16:56:00,
2013-02-17 10:57:00,22.8,10.6,29.94,SE,144,13.0,17.0,59,0.00,,,0.00,0,Wunderground v.1.15,2013-02-17 16:57:00,
2013-02-17 10:58:00,22.9,10.7,29.94,SE,141,14.0,17.0,59,0.00,,,0.00,0,Wunderground v.1.15,2013-02-17 16:58:00,
2013-02-17 11:00:00,22.8,10.6,29.94,SSE,147,5.0,5.0,59,0.00,,,0.00,0,Wunderground v.1.15,2013-02-17 17:00:00,
2013-02-17 11:01:00,22.8,10.6,29.94,SSE,163,10.0,12.0,59,0.00,,,0.00,0,Wunderground v.1.15,2013-02-17 17:01:00,
2013-02-17 11:02:00,22.9,10.7,29.94,SSE,147,11.0,17.0,59,0.00,,,0.00,0,Wunderground v.1.15,2013-02-17 17:02:00,
2013-02-17 11:03:00,23.0,10.8,29.93,SSE,149,12.0,17.0,59,0.00,,,0.00,0,Wunderground v.1.15,2013-02-17 17:03:00,
2013-02-17 11:05:00,23.0,10.8,29.93,SSE,153,10.0,17.0,59,0.00,,,0.00,0,Wunderground v.1.15,2013-02-17 17:05:00,
2013-02-17 11:06:00,23.1,10.9,29.93,SE,145,20.0,20.0,59,0.00,,,0.00,0,Wunderground v.1.15,2013-02-17 17:06:00,
2013-02-17 11:07:00,23.1,10.5,29.93,SSE,147,12.0,20.0,58,0.00,,,0.00,0,Wunderground v.1.15,2013-02-17 17:07:00,
2013-02-17 11:08:00,23.1,10.9,29.93,SE,146,12.0,20.0,59,0.00,,,0.00,0,Wunderground v.1.15,2013-02-17 17:08:00,
2013-02-17 11:10:00,23.1,10.9,29.94,SE,140,11.0,13.0,59,0.00,,,0.00,0,Wunderground v.1.15,2013-02-17 17:10:00,
2013-02-17 11:11:00,23.1,10.9,29.94,SE,143,10.0,14.0,59,0.00,,,0.00,0,Wunderground v.1.15,2013-02-17 17:11:00,
2013-02-17 11:12:00,23.2,11.0,29.93,SSE,161,10.0,14.0,59,0.00,,,0.00,0,Wunderground v.1.15,2013-02-17 17:12:00,
2013-02-17 11:13:00,23.3,11.1,29.94,SSE,152,10.0,14.0,59,0.00,,,0.00,0,Wunderground v.1.15,2013-02-17 17:13:00,
2013-02-17 11:15:00,23.4,11.2,29.93,SSE,168,10.0,20.0,59,0.00,,,0.00,0,Wunderground v.1.15,2013-02-17 17:15:00,
2013-02-17 11:17:00,23.4,10.8,29.93,SSE,154,7.0,20.0,58,0.00,,,0.00,0,Wunderground v.1.15,2013-02-17 17:17:00,
2013-02-17 11:18:00,23.5,11.3,29.93,SE,133,16.0,20.0,59,0.00,,,0.00,0,Wunderground v.1.15,2013-02-17 17:18:00,
2013-02-17 11:20:00,23.6,11.4,29.93,SSE,165,8.0,9.0,59,0.00,,,0.00,0,Wunderground v.1.15,2013-02-17 17:20:00,
2013-02-17 11:22:00,23.8,11.5,29.93,South,178,9.0,11.0,59,0.00,,,0.00,0,Wunderground v.1.15,2013-02-17 17:22:00,
2013-02-17 11:23:00,23.9,11.3,29.93,SSE,156,11.0,14.0,58,0.00,,,0.00,0,Wunderground v.1.15,2013-02-17 17:23:00,
2013-02-17 11:25:00,23.9,11.3,29.93,SE,130,8.0,14.0,58,0.00,,,0.00,0,Wunderground v.1.15,2013-02-17 17:25:00,
2013-02-17 11:27:00,24.0,11.3,29.93,SE,129,7.0,14.0,58,0.00,,,0.00,0,Wunderground v.1.15,2013-02-17 17:27:00,
2013-02-17 11:28:00,24.1,11.8,29.93,SE,132,8.0,14.0,59,0.00,,,0.00,0,Wunderground v.1.15,2013-02-17 17:28:00,
2013-02-17 11:29:00,24.2,11.5,29.93,SSE,147,8.0,14.0,58,0.00,,,0.00,0,Wunderground v.1.15,2013-02-17 17:29:00,
2013-02-17 11:30:00,24.2,11.5,29.93,SE,141,10.0,12.0,58,0.00,,,0.00,0,Wunderground v.1.15,2013-02-17 17:30:00,
2013-02-17 11:32:00,24.3,11.6,29.93,SE,140,7.0,12.0,58,0.00,,,0.00,0,Wunderground v.1.15,2013-02-17 17:32:00,
2013-02-17 11:33:00,24.4,11.7,29.93,SSE,150,10.0,12.0,58,0.00,,,0.00,0,Wunderground v.1.15,2013-02-17 17:33:00,
2013-02-17 11:34:00,24.4,11.7,29.93,SSE,147,7.0,13.0,58,0.00,,,0.00,0,Wunderground v.1.15,2013-02-17 17:34:00,
2013-02-17 11:35:00,24.4,11.7,29.93,SE,145,9.0,13.0,58,0.00,,,0.00,0,Wunderground v.1.15,2013-02-17 17:35:00,
2013-02-17 11:37:00,24.5,11.8,29.93,SE,141,12.0,17.0,58,0.00,,,0.00,0,Wunderground v.1.15,2013-02-17 17:37:00,
2013-02-17 11:38:00,24.5,11.8,29.93,South,172,8.0,17.0,58,0.00,,,0.00,0,Wunderground v.1.15,2013-02-17 17:38:00,
2013-02-17 11:39:00,24.5,11.8,29.93,SSE,158,9.0,17.0,58,0.00,,,0.00,0,Wunderground v.1.15,2013-02-17 17:39:00,
2013-02-17 11:40:00,24.6,11.9,29.92,SE,145,6.0,11.0,58,0.00,,,0.00,0,Wunderground v.1.15,2013-02-17 17:40:00,
2013-02-17 11:42:00,24.7,12.0,29.93,SE,140,11.0,14.0,58,0.00,,,0.00,0,Wunderground v.1.15,2013-02-17 17:42:00,
2013-02-17 11:43:00,24.8,12.1,29.92,SE,137,9.0,14.0,58,0.00,,,0.00,0,Wunderground v.1.15,2013-02-17 17:43:00,
2013-02-17 11:44:00,24.9,11.8,29.92,SE,138,8.0,14.0,57,0.00,,,0.00,0,Wunderground v.1.15,2013-02-17 17:44:00,
2013-02-17 11:45:00,24.9,12.2,29.92,SE,140,11.0,14.0,58,0.00,,,0.00,0,Wunderground v.1.15,2013-02-17 17:45:00,
2013-02-17 11:47:00,24.9,12.2,29.92,SE,129,6.0,14.0,58,0.00,,,0.00,0,Wunderground v.1.15,2013-02-17 17:47:00,
2013-02-17 11:49:00,25.1,12.0,29.92,SE,132,8.0,15.0,57,0.00,,,0.00,0,Wunderground v.1.15,2013-02-17 17:49:00,
2013-02-17 11:50:00,25.2,12.1,29.92,SE,139,9.0,9.0,57,0.00,,,0.00,0,Wunderground v.1.15,2013-02-17 17:50:00,
2013-02-17 11:52:00,25.3,12.6,29.91,SSE,149,7.0,17.0,58,0.00,,,0.00,0,Wunderground v.1.15,2013-02-17 17:52:00,
2013-02-17 11:54:00,25.5,12.4,29.91,SE,145,7.0,17.0,57,0.00,,,0.00,0,Wunderground v.1.15,2013-02-17 17:54:00,
2013-02-17 11:55:00,25.5,12.4,29.91,SSE,151,9.0,17.0,57,0.00,,,0.00,0,Wunderground v.1.15,2013-02-17 17:55:00,
2013-02-17 11:56:00,25.6,12.5,29.91,SSE,148,7.0,17.0,57,0.00,,,0.00,0,Wunderground v.1.15,2013-02-17 17:56:00,
2013-02-17 11:57:00,25.7,12.6,29.91,SE,134,12.0,17.0,57,0.00,,,0.00,0,Wunderground v.1.15,2013-02-17 17:57:00,
2013-02-17 11:59:00,25.8,12.6,29.91,SE,145,17.0,17.0,57,0.00,,,0.00,0,Wunderground v.1.15,2013-02-17 17:59:00,
2013-02-17 12:00:00,25.8,12.6,29.91,SE,126,7.0,11.0,57,0.00,,,0.00,0,Wunderground v.1.15,2013-02-17 18:00:00,
2013-02-17 12:01:00,25.9,12.7,29.91,SE,124,14.0,14.0,57,0.00,,,0.00,0,Wunderground v.1.15,2013-02-17 18:01:00,
2013-02-17 12:02:00,25.9,12.3,29.91,SE,139,12.0,19.0,56,0.00,,,0.00,0,Wunderground v.1.15,2013-02-17 18:02:00,
2013-02-17 12:04:00,25.9,12.3,29.91,SE,132,5.0,19.0,56,0.00,,,0.00,0,Wunderground v.1.15,2013-02-17 18:04:00,
2013-02-17 12:06:00,26.1,12.9,29.90,SE,128,12.0,19.0,57,0.00,,,0.00,0,Wunderground v.1.15,2013-02-17 18:06:00,
2013-02-17 12:07:00,26.2,13.0,29.90,SSE,150,11.0,19.0,57,0.00,,,0.00,0,Wunderground v.1.15,2013-02-17 18:07:00,
2013-02-17 12:09:00,26.3,13.1,29.89,ESE,119,10.0,19.0,57,0.00,,,0.00,0,Wunderground v.1.15,2013-02-17 18:09:00,
2013-02-17 12:11:00,26.4,12.8,29.90,SE,146,9.0,19.0,56,0.00,,,0.00,0,Wunderground v.1.15,2013-02-17 18:11:00,
2013-02-17 12:12:00,26.4,12.8,29.89,SE,143,8.0,19.0,56,0.00,,,0.00,0,Wunderground v.1.15,2013-02-17 18:12:00,
2013-02-17 12:14:00,26.4,12.8,29.89,SE,146,13.0,19.0,56,0.00,,,0.00,0,Wunderground v.1.15,2013-02-17 18:14:00,
2013-02-17 12:16:00,26.4,12.8,29.89,ESE,123,14.0,19.0,56,0.00,,,0.00,0,Wunderground v.1.15,2013-02-17 18:16:00,
2013-02-17 12:18:00,26.4,12.8,29.89,SSE,149,12.0,19.0,56,0.00,,,0.00,0,Wunderground v.1.15,2013-02-17 18:18:00,
2013-02-17 12:19:00,26.3,12.7,29.89,ESE,122,8.0,19.0,56,0.00,,,0.00,0,Wunderground v.1.15,2013-02-17 18:19:00,
2013-02-17 12:21:00,26.3,12.7,29.89,SE,144,13.0,17.0,56,0.00,,,0.00,0,Wunderground v.1.15,2013-02-17 18:21:00,
2013-02-17 12:23:00,26.3,12.7,29.89,SE,136,7.0,19.0,56,0.00,,,0.00,0,Wunderground v.1.15,2013-02-17 18:23:00,
2013-02-17 12:24:00,26.3,12.7,29.88,SE,140,22.0,22.0,56,0.00,,,0.00,0,Wunderground v.1.15,2013-02-17 18:24:00,
2013-02-17 12:26:00,26.3,12.7,29.88,SE,131,14.0,22.0,56,0.00,,,0.00,0,Wunderground v.1.15,2013-02-17 18:26:00,
2013-02-17 12:28:00,26.3,12.7,29.88,SSE,147,18.0,22.0,56,0.00,,,0.00,0,Wunderground v.1.15,2013-02-17 18:28:00,
2013-02-17 12:30:00,26.4,12.8,29.88,SSE,150,11.0,11.0,56,0.00,,,0.00,0,Wunderground v.1.15,2013-02-17 18:30:00,
2013-02-17 12:31:00,26.4,13.2,29.88,SE,144,9.0,14.0,57,0.00,,,0.00,0,Wunderground v.1.15,2013-02-17 18:31:00,
2013-02-17 12:33:00,26.5,13.3,29.88,SSE,148,6.0,20.0,57,0.00,,,0.00,0,Wunderground v.1.15,2013-02-17 18:33:00,
2013-02-17 12:35:00,26.6,13.4,29.88,SE,145,20.0,21.0,57,0.00,,,0.00,0,Wunderground v.1.15,2013-02-17 18:35:00,
2013-02-17 12:36:00,26.6,13.0,29.88,SE,144,10.0,21.0,56,0.00,,,0.00,0,Wunderground v.1.15,2013-02-17 18:36:00,
2013-02-17 12:38:00,26.7,13.5,29.88,SE,145,16.0,21.0,57,0.00,,,0.00,0,Wunderground v.1.15,2013-02-17 18:38:00,
2013-02-17 12:40:00,26.7,13.1,29.88,SE,137,14.0,14.0,56,0.00,,,0.00,0,Wunderground v.1.15,2013-02-17 18:40:00,
2013-02-17 12:41:00,26.7,13.1,29.88,SSE,152,8.0,17.0,56,0.00,,,0.00,0,Wunderground v.1.15,2013-02-17 18:41:00,
2013-02-17 12:43:00,26.8,13.6,29.88,SSE,159,14.0,18.0,57,0.00,,,0.00,0,Wunderground v.1.15,2013-02-17 18:43:00,
2013-02-17 12:45:00,26.9,13.7,29.88,SE,132,12.0,18.0,57,0.00,,,0.00,0,Wunderground v.1.15,2013-02-17 18:45:00,
2013-02-17 12:46:00,26.8,13.2,29.88,SE,144,11.0,22.0,56,0.00,,,0.00,0,Wunderground v.1.15,2013-02-17 18:46:00,
2013-02-17 12:47:00,26.8,13.2,29.88,SE,144,12.0,22.0,56,0.00,,,0.00,0,Wunderground v.1.15,2013-02-17 18:47:00,
2013-02-17 12:48:00,26.8,13.2,29.88,SE,134,10.0,22.0,56,0.00,,,0.00,0,Wunderground v.1.15,2013-02-17 18:48:00,
2013-02-17 12:50:00,26.9,13.7,29.88,SE,141,12.0,20.0,57,0.00,,,0.00,0,Wunderground v.1.15,2013-02-17 18:50:00,
2013-02-17 12:51:00,26.9,13.3,29.87,SSE,151,5.0,20.0,56,0.00,,,0.00,0,Wunderground v.1.15,2013-02-17 18:51:00,
2013-02-17 12:52:00,27.0,13.4,29.87,SSE,151,6.0,20.0,56,0.00,,,0.00,0,Wunderground v.1.15,2013-02-17 18:52:00,
2013-02-17 12:53:00,27.0,13.4,29.87,SSE,159,10.0,20.0,56,0.00,,,0.00,0,Wunderground v.1.15,2013-02-17 18:53:00,
2013-02-17 12:55:00,27.1,13.9,29.87,SE,140,12.0,20.0,57,0.00,,,0.00,0,Wunderground v.1.15,2013-02-17 18:55:00,
2013-02-17 12:57:00,27.3,14.1,29.87,SE,130,13.0,20.0,57,0.00,,,0.00,0,Wunderground v.1.15,2013-02-17 18:57:00,
2013-02-17 12:59:00,27.3,13.7,29.86,SE,127,9.0,22.0,56,0.00,,,0.00,0,Wunderground v.1.15,2013-02-17 18:59:00,
2013-02-17 13:00:00,27.3,14.1,29.86,ESE,118,12.0,12.0,57,0.00,,,0.00,0,Wunderground v.1.15,2013-02-17 19:00:00,
2013-02-17 13:02:00,27.4,14.1,29.86,SSE,152,19.0,19.0,57,0.00,,,0.00,0,Wunderground v.1.15,2013-02-17 19:02:00,
2013-02-17 13:04:00,27.4,14.1,29.86,SSE,149,10.0,21.0,57,0.00,,,0.00,0,Wunderground v.1.15,2013-02-17 19:04:00,
2013-02-17 13:05:00,27.3,14.1,29.86,SE,136,16.0,21.0,57,0.00,,,0.00,0,Wunderground v.1.15,2013-02-17 19:05:00,
2013-02-17 13:07:00,27.3,14.1,29.86,SE,143,11.0,21.0,57,0.00,,,0.00,0,Wunderground v.1.15,2013-02-17 19:07:00,
2013-02-17 13:09:00,27.3,14.1,29.86,SSE,152,10.0,21.0,57,0.00,,,0.00,0,Wunderground v.1.15,2013-02-17 19:09:00,
2013-02-17 13:11:00,27.2,14.0,29.86,SSE,150,12.0,20.0,57,0.00,,,0.00,0,Wunderground v.1.15,2013-02-17 19:11:00,
2013-02-17 13:12:00,27.3,14.1,29.87,SE,145,20.0,21.0,57,0.00,,,0.00,0,Wunderground v.1.15,2013-02-17 19:12:00,
2013-02-17 13:14:00,27.3,14.1,29.86,SSE,166,11.0,21.0,57,0.00,,,0.00,0,Wunderground v.1.15,2013-02-17 19:14:00,
2013-02-17 13:16:00,27.5,14.2,29.86,SE,138,10.0,21.0,57,0.00,,,0.00,0,Wunderground v.1.15,2013-02-17 19:16:00,
2013-02-17 13:17:00,27.5,14.2,29.86,ESE,120,9.0,21.0,57,0.00,,,0.00,0,Wunderground v.1.15,2013-02-17 19:17:00,
2013-02-17 13:18:00,27.5,14.2,29.86,SE,137,12.0,21.0,57,0.00,,,0.00,0,Wunderground v.1.15,2013-02-17 19:18:00,
2013-02-17 13:19:00,27.6,14.3,29.86,SE,129,14.0,21.0,57,0.00,,,0.00,0,Wunderground v.1.15,2013-02-17 19:19:00,
2013-02-17 13:22:00,27.6,14.3,29.86,SSE,153,15.0,25.0,57,0.00,,,0.00,0,Wunderground v.1.15,2013-02-17 19:22:00,
2013-02-17 13:23:00,27.6,14.3,29.86,SE,145,16.0,25.0,57,0.00,,,0.00,0,Wunderground v.1.15,2013-02-17 19:23:00,
2013-02-17 13:24:00,27.6,14.3,29.85,SE,146,16.0,25.0,57,0.00,,,0.00,0,Wunderground v.1.15,2013-02-17 19:24:00,
2013-02-17 13:27:00,27.6,14.3,29.85,SE,143,17.0,25.0,57,0.00,,,0.00,0,Wunderground v.1.15,2013-02-17 19:27:00,
2013-02-17 13:28:00,27.7,14.4,29.85,SE,143,12.0,25.0,57,0.00,,,0.00,0,Wunderground v.1.15,2013-02-17 19:28:00,
2013-02-17 13:29:00,27.8,14.5,29.85,SE,140,15.0,25.0,57,0.00,,,0.00,0,Wunderground v.1.15,2013-02-17 19:29:00,
2013-02-17 13:32:00,27.8,14.5,29.85,SE,134,14.0,20.0,57,0.00,,,0.00,0,Wunderground v.1.15,2013-02-17 19:32:00,
2013-02-17 13:33:00,27.9,14.6,29.84,SSE,152,14.0,20.0,57,0.00,,,0.00,0,Wunderground v.1.15,2013-02-17 19:33:00,
2013-02-17 13:34:00,27.8,14.5,29.85,SE,128,12.0,20.0,57,0.00,,,0.00,0,Wunderground v.1.15,2013-02-17 19:34:00,
2013-02-17 13:37:00,27.9,14.6,29.85,SE,144,21.0,21.0,57,0.00,,,0.00,0,Wunderground v.1.15,2013-02-17 19:37:00,
2013-02-17 13:38:00,27.8,14.5,29.84,SSE,147,11.0,21.0,57,0.00,,,0.00,0,Wunderground v.1.15,2013-02-17 19:38:00,
2013-02-17 13:39:00,27.9,14.6,29.84,SE,141,10.0,21.0,57,0.00,,,0.00,0,Wunderground v.1.15,2013-02-17 19:39:00,
2013-02-17 13:42:00,28.2,15.3,29.84,SE,146,12.0,17.0,58,0.00,,,0.00,0,Wunderground v.1.15,2013-02-17 19:42:00,
2013-02-17 13:43:00,28.2,14.9,29.85,SSE,148,11.0,17.0,57,0.00,,,0.00,0,Wunderground v.1.15,2013-02-17 19:43:00,
2013-02-17 13:44:00,28.3,15.0,29.84,SE,145,14.0,17.0,57,0.00,,,0.00,0,Wunderground v.1.15,2013-02-17 19:44:00,
2013-02-17 13:47:00,28.3,15.0,29.84,SSE,147,21.0,25.0,57,0.00,,,0.00,0,Wunderground v.1.15,2013-02-17 19:47:00,
2013-02-17 13:48:00,28.2,14.9,29.83,SSE,154,12.0,25.0,57,0.00,,,0.00,0,Wunderground v.1.15,2013-02-17 19:48:00,
2013-02-17 13:49:00,28.1,14.8,29.83,SSE,149,10.0,25.0,57,0.00,,,0.00,0,Wunderground v.1.15,2013-02-17 19:49:00,
2013-02-17 13:52:00,28.2,14.9,29.83,SSE,147,17.0,20.0,57,0.00,,,0.00,0,Wunderground v.1.15,2013-02-17 19:52:00,
2013-02-17 13:53:00,28.2,14.9,29.83,SSE,150,19.0,20.0,57,0.00,,,0.00,0,Wunderground v.1.15,2013-02-17 19:53:00,
2013-02-17 13:54:00,28.2,14.9,29.83,SE,142,17.0,20.0,57,0.00,,,0.00,0,Wunderground v.1.15,2013-02-17 19:54:00,
2013-02-17 13:55:00,28.2,14.9,29.83,SE,131,12.0,20.0,57,0.00,,,0.00,0,Wunderground v.1.15,2013-02-17 19:55:00,
2013-02-17 13:57:00,28.3,15.0,29.83,ESE,118,12.0,20.0,57,0.00,,,0.00,0,Wunderground v.1.15,2013-02-17 19:57:00,
2013-02-17 13:59:00,28.3,15.4,29.83,SSE,151,12.0,20.0,58,0.00,,,0.00,0,Wunderground v.1.15,2013-02-17 19:59:00,
2013-02-17 14:00:00,28.3,15.0,29.83,SE,134,12.0,18.0,57,0.00,,,0.00,0,Wunderground v.1.15,2013-02-17 20:00:00,
2013-02-17 14:02:00,28.3,15.4,29.83,SSE,150,19.0,20.0,58,0.00,,,0.00,0,Wunderground v.1.15,2013-02-17 20:02:00,
2013-02-17 14:04:00,28.4,15.1,29.83,SE,146,17.0,23.0,57,0.00,,,0.00,0,Wunderground v.1.15,2013-02-17 20:04:00,
2013-02-17 14:06:00,28.5,15.6,29.83,SSE,167,17.0,23.0,58,0.00,,,0.00,0,Wunderground v.1.15,2013-02-17 20:06:00,
2013-02-17 14:07:00,28.4,15.1,29.84,SE,143,18.0,23.0,57,0.00,,,0.00,0,Wunderground v.1.15,2013-02-17 20:07:00,
2013-02-17 14:09:00,28.4,15.1,29.83,SSE,152,16.0,23.0,57,0.00,,,0.00,0,Wunderground v.1.15,2013-02-17 20:09:00,
2013-02-17 14:11:00,28.4,15.1,29.83,SE,136,7.0,19.0,57,0.00,,,0.00,0,Wunderground v.1.15,2013-02-17 20:11:00,
2013-02-17 14:13:00,28.5,15.6,29.83,SE,144,14.0,24.0,58,0.00,,,0.00,0,Wunderground v.1.15,2013-02-17 20:13:00,
2013-02-17 14:14:00,28.5,15.2,29.83,SE,146,16.0,27.0,57,0.00,,,0.00,0,Wunderground v.1.15,2013-02-17 20:14:00,
2013-02-17 14:16:00,28.5,15.2,29.82,SE,144,11.0,27.0,57,0.00,,,0.00,0,Wunderground v.1.15,2013-02-17 20:16:00,
2013-02-17 14:18:00,28.5,15.6,29.82,SE,144,19.0,27.0,58,0.00,,,0.00,0,Wunderground v.1.15,2013-02-17 20:18:00,
2013-02-17 14:19:00,28.5,15.6,29.82,SE,145,14.0,27.0,58,0.00,,,0.00,0,Wunderground v.1.15,2013-02-17 20:19:00,
2013-02-17 14:20:00,28.5,15.2,29.82,SE,146,17.0,17.0,57,0.00,,,0.00,0,Wunderground v.1.15,2013-02-17 20:20:00,
2013-02-17 14:22:00,28.6,15.7,29.82,SE,140,10.0,18.0,58,0.00,,,0.00,0,Wunderground v.1.15,2013-02-17 20:22:00,
2013-02-17 14:23:00,28.7,15.8,29.82,SSE,160,8.0,18.0,58,0.00,,,0.00,0,Wunderground v.1.15,2013-02-17 20:23:00,
2013-02-17 14:24:00,28.8,15.9,29.82,SE,146,21.0,21.0,58,0.00,,,0.00,0,Wunderground v.1.15,2013-02-17 20:24:00,
2013-02-17 14:25:00,28.8,15.9,29.82,SSE,148,16.0,21.0,58,0.00,,,0.00,0,Wunderground v.1.15,2013-02-17 20:25:00,
2013-02-17 14:27:00,28.8,15.5,29.82,SE,133,16.0,23.0,57,0.00,,,0.00,0,Wunderground v.1.15,2013-02-17 20:27:00,
2013-02-17 14:28:00,28.8,15.5,29.82,SSE,150,16.0,23.0,57,0.00,,,0.00,0,Wunderground v.1.15,2013-02-17 20:28:00,
2013-02-17 14:30:00,28.8,15.5,29.81,SE,142,14.0,18.0,57,0.00,,,0.00,0,Wunderground v.1.15,2013-02-17 20:30:00,
2013-02-17 14:32:00,28.8,15.5,29.81,SSE,147,17.0,24.0,57,0.00,,,0.00,0,Wunderground v.1.15,2013-02-17 20:32:00,
2013-02-17 14:34:00,28.8,15.5,29.81,SE,146,18.0,24.0,57,0.00,,,0.00,0,Wunderground v.1.15,2013-02-17 20:34:00,
2013-02-17 14:35:00,28.8,15.9,29.81,ESE,123,12.0,24.0,58,0.00,,,0.00,0,Wunderground v.1.15,2013-02-17 20:35:00,
2013-02-17 14:37:00,28.9,15.6,29.81,SE,146,17.0,24.0,57,0.00,,,0.00,0,Wunderground v.1.15,2013-02-17 20:37:00,
2013-02-17 14:39:00,28.9,16.0,29.81,SE,144,15.0,24.0,58,0.00,,,0.00,0,Wunderground v.1.15,2013-02-17 20:39:00,
2013-02-17 14:40:00,29.0,16.1,29.81,SSE,148,15.0,21.0,58,0.00,,,0.00,0,Wunderground v.1.15,2013-02-17 20:40:00,
2013-02-17 14:42:00,29.1,15.7,29.81,SE,146,9.0,22.0,57,0.00,,,0.00,0,Wunderground v.1.15,2013-02-17 20:42:00,
2013-02-17 14:44:00,29.2,16.2,29.80,SSE,150,12.0,22.0,58,0.00,,,0.00,0,Wunderground v.1.15,2013-02-17 20:44:00,
2013-02-17 14:45:00,29.2,16.2,29.80,SE,138,13.0,23.0,58,0.00,,,0.00,0,Wunderground v.1.15,2013-02-17 20:45:00,
2013-02-17 14:47:00,29.2,16.2,29.80,SE,135,11.0,23.0,58,0.00,,,0.00,0,Wunderground v.1.15,2013-02-17 20:47:00,
2013-02-17 14:50:00,29.3,16.3,29.80,SE,141,15.0,17.0,58,0.00,,,0.00,0,Wunderground v.1.15,2013-02-17 20:50:00,
2013-02-17 14:51:00,29.3,16.3,29.80,SSE,147,11.0,21.0,58,0.00,,,0.00,0,Wunderground v.1.15,2013-02-17 20:51:00,
2013-02-17 14:52:00,29.3,16.3,29.80,SE,145,13.0,22.0,58,0.00,,,0.00,0,Wunderground v.1.15,2013-02-17 20:52:00,
2013-02-17 14:55:00,29.2,16.2,29.80,SE,144,19.0,25.0,58,0.00,,,0.00,0,Wunderground v.1.15,2013-02-17 20:55:00,
2013-02-17 14:56:00,29.2,16.2,29.80,SE,137,15.0,25.0,58,0.00,,,0.00,0,Wunderground v.1.15,2013-02-17 20:56:00,
2013-02-17 14:57:00,29.2,16.2,29.80,SE,135,12.0,25.0,58,0.00,,,0.00,0,Wunderground v.1.15,2013-02-17 20:57:00,
2013-02-17 15:00:00,29.2,16.2,29.80,SE,145,7.0,21.0,58,0.00,,,0.00,0,Wunderground v.1.15,2013-02-17 21:00:00,
2013-02-17 15:01:00,29.2,16.2,29.80,SE,125,12.0,21.0,58,0.00,,,0.00,0,Wunderground v.1.15,2013-02-17 21:01:00,
2013-02-17 15:04:00,29.2,16.2,29.80,SE,146,12.0,23.0,58,0.00,,,0.00,0,Wunderground v.1.15,2013-02-17 21:04:00,
2013-02-17 15:05:00,29.2,16.2,29.80,SE,141,15.0,23.0,58,0.00,,,0.00,0,Wunderground v.1.15,2013-02-17 21:05:00,
2013-02-17 15:06:00,29.3,16.3,29.80,SE,139,15.0,23.0,58,0.00,,,0.00,0,Wunderground v.1.15,2013-02-17 21:06:00,
2013-02-17 15:09:00,29.3,16.7,29.80,SE,139,7.0,26.0,59,0.00,,,0.00,0,Wunderground v.1.15,2013-02-17 21:09:00,
2013-02-17 15:10:00,29.3,16.7,29.79,SSE,150,15.0,18.0,59,0.00,,,0.00,0,Wunderground v.1.15,2013-02-17 21:10:00,
2013-02-17 15:11:00,29.3,16.7,29.79,SSE,156,8.0,18.0,59,0.00,,,0.00,0,Wunderground v.1.15,2013-02-17 21:11:00,
2013-02-17 15:14:00,29.4,16.4,29.80,SSE,151,12.0,22.0,58,0.00,,,0.00,0,Wunderground v.1.15,2013-02-17 21:14:00,
2013-02-17 15:15:00,29.4,16.8,29.80,SSE,148,9.0,22.0,59,0.00,,,0.00,0,Wunderground v.1.15,2013-02-17 21:15:00,
2013-02-17 15:16:00,29.4,16.4,29.79,SSE,151,10.0,22.0,58,0.00,,,0.00,0,Wunderground v.1.15,2013-02-17 21:16:00,
2013-02-17 15:20:00,29.4,16.4,29.80,SSE,152,14.0,14.0,58,0.00,,,0.00,0,Wunderground v.1.15,2013-02-17 21:20:00,
2013-02-17 15:21:00,29.4,16.4,29.80,SSE,148,18.0,24.0,58,0.00,,,0.00,0,Wunderground v.1.15,2013-02-17 21:21:00,
2013-02-17 15:25:00,29.5,16.5,29.80,SSE,150,16.0,36.0,58,0.00,,,0.00,0,Wunderground v.1.15,2013-02-17 21:25:00,
2013-02-17 15:26:00,29.5,16.5,29.79,SE,142,20.0,36.0,58,0.00,,,0.00,0,Wunderground v.1.15,2013-02-17 21:26:00,
2013-02-17 15:30:00,29.5,16.5,29.79,SSE,151,13.0,19.0,58,0.00,,,0.00,0,Wunderground v.1.15,2013-02-17 21:30:00,
2013-02-17 15:31:00,29.5,16.5,29.79,SE,134,12.0,19.0,58,0.00,,,0.00,0,Wunderground v.1.15,2013-02-17 21:31:00,
2013-02-17 15:32:00,29.5,16.5,29.79,SE,139,22.0,22.0,58,0.00,,,0.00,0,Wunderground v.1.15,2013-02-17 21:32:00,
2013-02-17 15:35:00,29.5,16.5,29.79,SSE,147,19.0,22.0,58,0.00,,,0.00,0,Wunderground v.1.15,2013-02-17 21:35:00,
2013-02-17 15:37:00,29.5,16.5,29.79,SE,146,27.0,27.0,58,0.00,,,0.00,0,Wunderground v.1.15,2013-02-17 21:37:00,
2013-02-17 15:40:00,29.6,16.6,29.78,SSE,163,17.0,17.0,58,0.00,,,0.00,0,Wunderground v.1.15,2013-02-17 21:40:00,
2013-02-17 15:42:00,29.6,16.6,29.78,SSE,151,18.0,23.0,58,0.00,,,0.00,0,Wunderground v.1.15,2013-02-17 21:42:00,
2013-02-17 15:45:00,29.7,16.7,29.79,SSE,152,11.0,27.0,58,0.00,,,0.00,0,Wunderground v.1.15,2013-02-17 21:45:00,
2013-02-17 15:47:00,29.8,16.8,29.78,SE,137,12.0,27.0,58,0.00,,,0.00,0,Wunderground v.1.15,2013-02-17 21:47:00,
2013-02-17 15:48:00,29.8,16.8,29.78,SE,143,13.0,27.0,58,0.00,,,0.00,0,Wunderground v.1.15,2013-02-17 21:48:00,
2013-02-17 15:50:00,29.8,16.8,29.78,SSE,150,19.0,20.0,58,0.00,,,0.00,0,Wunderground v.1.15,2013-02-17 21:50:00,
2013-02-17 15:52:00,29.8,16.8,29.78,SE,133,8.0,23.0,58,0.00,,,0.00,0,Wunderground v.1.15,2013-02-17 21:52:00,
2013-02-17 15:53:00,29.9,16.9,29.78,SE,129,15.0,23.0,58,0.00,,,0.00,0,Wunderground v.1.15,2013-02-17 21:53:00,
2013-02-17 15:56:00,29.9,17.3,29.77,SE,139,14.0,23.0,59,0.00,,,0.00,0,Wunderground v.1.15,2013-02-17 21:56:00,
2013-02-17 15:57:00,29.9,17.3,29.77,SE,143,19.0,23.0,59,0.00,,,0.00,0,Wunderground v.1.15,2013-02-17 21:57:00,
2013-02-17 15:58:00,29.9,16.9,29.77,SE,143,20.0,27.0,58,0.00,,,0.00,0,Wunderground v.1.15,2013-02-17 21:58:00,
2013-02-17 16:01:00,29.9,16.9,29.77,SSE,148,21.0,31.0,58,0.00,,,0.00,0,Wunderground v.1.15,2013-02-17 22:01:00,
2013-02-17 16:02:00,29.8,16.8,29.77,SSE,155,13.0,31.0,58,0.00,,,0.00,0,Wunderground v.1.15,2013-02-17 22:02:00,
2013-02-17 16:03:00,29.8,16.8,29.77,SE,145,11.0,31.0,58,0.00,,,0.00,0,Wunderground v.1.15,2013-02-17 22:03:00,
2013-02-17 16:06:00,29.8,16.8,29.77,SE,146,8.0,31.0,58,0.00,,,0.00,0,Wunderground v.1.15,2013-02-17 22:06:00,
2013-02-17 16:08:00,29.8,16.8,29.77,SSE,150,16.0,31.0,58,0.00,,,0.00,0,Wunderground v.1.15,2013-02-17 22:08:00,
2013-02-17 16:11:00,29.9,17.3,29.77,SE,143,13.0,22.0,59,0.00,,,0.00,0,Wunderground v.1.15,2013-02-17 22:11:00,
2013-02-17 16:13:00,29.9,17.3,29.76,SE,144,15.0,23.0,59,0.00,,,0.00,0,Wunderground v.1.15,2013-02-17 22:13:00,
2013-02-17 16:16:00,29.9,17.3,29.76,SSE,147,23.0,23.0,59,0.00,,,0.00,0,Wunderground v.1.15,2013-02-17 22:16:00,
2013-02-17 16:18:00,29.9,17.3,29.76,SE,144,20.0,29.0,59,0.00,,,0.00,0,Wunderground v.1.15,2013-02-17 22:18:00,
2013-02-17 16:22:00,29.9,17.3,29.75,SE,128,14.0,18.0,59,0.00,,,0.00,0,Wunderground v.1.15,2013-02-17 22:22:00,
2013-02-17 16:23:00,30.0,17.4,29.75,SE,140,17.0,22.0,59,0.00,,,0.00,0,Wunderground v.1.15,2013-02-17 22:23:00,
2013-02-17 16:27:00,30.0,17.4,29.74,SE,139,12.0,22.0,59,0.00,,,0.00,0,Wunderground v.1.15,2013-02-17 22:27:00,
2013-02-17 16:28:00,30.0,17.4,29.74,SE,146,19.0,23.0,59,0.00,,,0.00,0,Wunderground v.1.15,2013-02-17 22:28:00,
2013-02-17 16:32:00,30.0,17.4,29.74,SE,135,11.0,16.0,59,0.00,,,0.00,0,Wunderground v.1.15,2013-02-17 22:32:00,
2013-02-17 16:33:00,29.9,17.7,29.75,SE,141,13.0,19.0,60,0.00,,,0.00,0,Wunderground v.1.15,2013-02-17 22:33:00,
2013-02-17 16:37:00,29.9,17.3,29.75,SE,136,13.0,24.0,59,0.00,,,0.00,0,Wunderground v.1.15,2013-02-17 22:37:00,
2013-02-17 16:38:00,29.8,17.6,29.74,SE,131,19.0,24.0,60,0.00,,,0.00,0,Wunderground v.1.15,2013-02-17 22:38:00,
2013-02-17 16:42:00,29.8,17.2,29.74,SE,145,16.0,22.0,59,0.00,,,0.00,0,Wunderground v.1.15,2013-02-17 22:42:00,
2013-02-17 16:44:00,29.8,17.6,29.75,SE,145,18.0,22.0,60,0.00,,,0.00,0,Wunderground v.1.15,2013-02-17 22:44:00,
2013-02-17 16:48:00,29.7,17.5,29.74,SE,141,22.0,24.0,60,0.00,,,0.00,0,Wunderground v.1.15,2013-02-17 22:48:00,
2013-02-17 16:49:00,29.7,17.5,29.74,SSE,152,13.0,24.0,60,0.00,,,0.00,0,Wunderground v.1.15,2013-02-17 22:49:00,
2013-02-17 16:53:00,29.6,17.4,29.74,SE,142,15.0,29.0,60,0.00,,,0.00,0,Wunderground v.1.15,2013-02-17 22:53:00,
2013-02-17 16:54:00,29.6,17.4,29.74,SE,139,11.0,29.0,60,0.00,,,0.00,0,Wunderground v.1.15,2013-02-17 22:54:00,
2013-02-17 16:58:00,29.6,17.4,29.74,SE,132,13.0,29.0,60,0.00,,,0.00,0,Wunderground v.1.15,2013-02-17 22:58:00,
2013-02-17 16:59:00,29.5,17.3,29.74,SE,129,14.0,29.0,60,0.00,,,0.00,0,Wunderground v.1.15,2013-02-17 22:59:00,
2013-02-17 17:04:00,29.5,17.3,29.74,ESE,123,20.0,20.0,60,0.00,,,0.00,0,Wunderground v.1.15,2013-02-17 23:04:00,
2013-02-17 17:05:00,29.5,17.3,29.74,SE,135,13.0,20.0,60,0.00,,,0.00,0,Wunderground v.1.15,2013-02-17 23:05:00,
2013-02-17 17:09:00,29.4,17.2,29.74,SE,140,16.0,30.0,60,0.00,,,0.00,0,Wunderground v.1.15,2013-02-17 23:09:00,
2013-02-17 17:10:00,29.4,17.2,29.74,SE,138,22.0,23.0,60,0.00,,,0.00,0,Wunderground v.1.15,2013-02-17 23:10:00,
2013-02-17 17:14:00,29.4,17.2,29.74,SE,146,18.0,25.0,60,0.00,,,0.00,0,Wunderground v.1.15,2013-02-17 23:14:00,
2013-02-17 17:15:00,29.4,17.2,29.74,SE,127,16.0,25.0,60,0.00,,,0.00,0,Wunderground v.1.15,2013-02-17 23:15:00,
2013-02-17 17:19:00,29.4,17.2,29.74,SE,128,10.0,25.0,60,0.00,,,0.00,0,Wunderground v.1.15,2013-02-17 23:19:00,
2013-02-17 17:21:00,29.3,17.1,29.74,SSE,149,18.0,24.0,60,0.00,,,0.00,0,Wunderground v.1.15,2013-02-17 23:21:00,
2013-02-17 17:24:00,29.2,17.4,29.74,SSE,147,12.0,24.0,61,0.00,,,0.00,0,Wunderground v.1.15,2013-02-17 23:24:00,
2013-02-17 17:26:00,29.2,17.4,29.74,SE,144,14.0,24.0,61,0.00,,,0.00,0,Wunderground v.1.15,2013-02-17 23:26:00,
2013-02-17 17:30:00,29.2,17.4,29.73,SE,141,15.0,15.0,61,0.00,,,0.00,0,Wunderground v.1.15,2013-02-17 23:30:00,
2013-02-17 17:31:00,29.2,17.4,29.73,ESE,118,11.0,20.0,61,0.00,,,0.00,0,Wunderground v.1.15,2013-02-17 23:31:00,
2013-02-17 17:35:00,29.2,17.4,29.73,SSE,160,14.0,27.0,61,0.00,,,0.00,0,Wunderground v.1.15,2013-02-17 23:35:00,
2013-02-17 17:36:00,29.2,17.4,29.73,SSE,151,14.0,27.0,61,0.00,,,0.00,0,Wunderground v.1.15,2013-02-17 23:36:00,
2013-02-17 17:40:00,29.1,17.3,29.73,SE,142,13.0,13.0,61,0.00,,,0.00,0,Wunderground v.1.15,2013-02-17 23:40:00,
2013-02-17 17:41:00,29.0,17.6,29.73,SSE,148,8.0,18.0,62,0.00,,,0.00,0,Wunderground v.1.15,2013-02-17 23:41:00,
2013-02-17 17:45:00,29.0,17.6,29.73,SSE,151,12.0,24.0,62,0.00,,,0.00,0,Wunderground v.1.15,2013-02-17 23:45:00,
2013-02-17 17:46:00,29.1,17.7,29.73,SE,126,10.0,24.0,62,0.00,,,0.00,0,Wunderground v.1.15,2013-02-17 23:46:00,
2013-02-17 17:50:00,29.0,17.6,29.72,SE,142,14.0,17.0,62,0.00,,,0.00,0,Wunderground v.1.15,2013-02-17 23:50:00,
2013-02-17 17:51:00,28.9,17.5,29.72,SE,146,13.0,25.0,62,0.00,,,0.00,0,Wunderground v.1.15,2013-02-17 23:51:00,
2013-02-17 17:52:00,29.0,17.6,29.72,SE,145,10.0,25.0,62,0.00,,,0.00,0,Wunderground v.1.15,2013-02-17 23:52:00,
2013-02-17 17:55:00,28.9,17.5,29.72,SE,140,11.0,25.0,62,0.00,,,0.00,0,Wunderground v.1.15,2013-02-17 23:55:00,
2013-02-17 17:56:00,28.9,17.5,29.72,SSE,149,13.0,25.0,62,0.00,,,0.00,0,Wunderground v.1.15,2013-02-17 23:56:00,
2013-02-17 17:57:00,28.9,17.5,29.72,SE,136,12.0,25.0,62,0.00,,,0.00,0,Wunderground v.1.15,2013-02-17 23:57:00,
2013-02-17 18:00:00,28.9,17.9,29.72,SE,136,20.0,33.0,63,0.00,,,0.00,0,Wunderground v.1.15,2013-02-18 00:00:00,
2013-02-17 18:01:00,28.9,17.5,29.72,SE,128,15.0,33.0,62,0.00,,,0.00,0,Wunderground v.1.15,2013-02-18 00:01:00,
2013-02-17 18:02:00,28.9,17.5,29.72,SSE,149,15.0,33.0,62,0.00,,,0.00,0,Wunderground v.1.15,2013-02-18 00:02:00,
2013-02-17 18:05:00,28.9,17.9,29.72,SSE,148,11.0,33.0,63,0.00,,,0.00,0,Wunderground v.1.15,2013-02-18 00:05:00,
2013-02-17 18:06:00,28.9,17.9,29.72,SE,130,15.0,33.0,63,0.00,,,0.00,0,Wunderground v.1.15,2013-02-18 00:06:00,
2013-02-17 18:07:00,28.9,17.9,29.72,SE,141,17.0,33.0,63,0.00,,,0.00,0,Wunderground v.1.15,2013-02-18 00:07:00,
2013-02-17 18:10:00,28.8,17.8,29.72,SSE,151,13.0,17.0,63,0.00,,,0.00,0,Wunderground v.1.15,2013-02-18 00:10:00,
2013-02-17 18:11:00,28.8,17.8,29.72,SE,136,11.0,21.0,63,0.00,,,0.00,0,Wunderground v.1.15,2013-02-18 00:11:00,
2013-02-17 18:12:00,28.8,17.8,29.72,ESE,103,13.0,21.0,63,0.00,,,0.00,0,Wunderground v.1.15,2013-02-18 00:12:00,
2013-02-17 18:15:00,28.8,17.8,29.71,SE,133,9.0,24.0,63,0.00,,,0.00,0,Wunderground v.1.15,2013-02-18 00:15:00,
2013-02-17 18:16:00,28.8,17.8,29.72,SE,144,14.0,24.0,63,0.00,,,0.00,0,Wunderground v.1.15,2013-02-18 00:16:00,
2013-02-17 18:17:00,28.8,17.8,29.72,SSE,147,13.0,24.0,63,0.00,,,0.00,0,Wunderground v.1.15,2013-02-18 00:17:00,
2013-02-17 18:20:00,28.8,17.8,29.72,SE,139,11.0,20.0,63,0.00,,,0.00,0,Wunderground v.1.15,2013-02-18 00:20:00,
2013-02-17 18:21:00,28.7,17.7,29.72,SE,129,16.0,20.0,63,0.00,,,0.00,0,Wunderground v.1.15,2013-02-18 00:21:00,
2013-02-17 18:22:00,28.7,17.7,29.72,SE,144,15.0,24.0,63,0.00,,,0.00,0,Wunderground v.1.15,2013-02-18 00:22:00,
2013-02-17 18:26:00,28.8,17.8,29.72,SSE,147,15.0,25.0,63,0.00,,,0.00,0,Wunderground v.1.15,2013-02-18 00:26:00,
2013-02-17 18:27:00,28.7,17.7,29.71,SE,136,12.0,25.0,63,0.00,,,0.00,0,Wunderground v.1.15,2013-02-18 00:27:00,
2013-02-17 18:31:00,28.6,18.0,29.72,SE,133,16.0,18.0,64,0.00,,,0.00,0,Wunderground v.1.15,2013-02-18 00:31:00,
2013-02-17 18:32:00,28.6,17.6,29.71,SE,129,13.0,18.0,63,0.00,,,0.00,0,Wunderground v.1.15,2013-02-18 00:32:00,
2013-02-17 18:36:00,28.5,17.9,29.71,SSE,149,12.0,18.0,64,0.00,,,0.00,0,Wunderground v.1.15,2013-02-18 00:36:00,
2013-02-17 18:37:00,28.5,17.9,29.71,SE,137,11.0,25.0,64,0.00,,,0.00,0,Wunderground v.1.15,2013-02-18 00:37:00,
2013-02-17 18:41:00,28.5,17.9,29.71,SSE,148,15.0,20.0,64,0.00,,,0.00,0,Wunderground v.1.15,2013-02-18 00:41:00,
2013-02-17 18:43:00,28.6,18.0,29.71,SE,131,14.0,23.0,64,0.00,,,0.00,0,Wunderground v.1.15,2013-02-18 00:43:00,
2013-02-17 18:46:00,28.5,17.9,29.70,SE,143,17.0,23.0,64,0.00,,,0.00,0,Wunderground v.1.15,2013-02-18 00:46:00,
2013-02-17 18:47:00,28.5,17.9,29.70,SSE,148,13.0,23.0,64,0.00,,,0.00,0,Wunderground v.1.15,2013-02-18 00:47:00,
2013-02-17 18:48:00,28.5,17.9,29.70,ESE,121,18.0,23.0,64,0.00,,,0.00,0,Wunderground v.1.15,2013-02-18 00:48:00,
2013-02-17 18:51:00,28.4,17.8,29.71,SE,130,16.0,18.0,64,0.00,,,0.00,0,Wunderground v.1.15,2013-02-18 00:51:00,
2013-02-17 18:52:00,28.4,17.8,29.71,SE,126,13.0,18.0,64,0.00,,,0.00,0,Wunderground v.1.15,2013-02-18 00:52:00,
2013-02-17 18:53:00,28.4,17.8,29.71,SE,144,20.0,24.0,64,0.00,,,0.00,0,Wunderground v.1.15,2013-02-18 00:53:00,
2013-02-17 18:56:00,28.4,17.8,29.71,SE,140,14.0,24.0,64,0.00,,,0.00,0,Wunderground v.1.15,2013-02-18 00:56:00,
2013-02-17 18:57:00,28.4,18.1,29.70,SE,134,8.0,24.0,65,0.00,,,0.00,0,Wunderground v.1.15,2013-02-18 00:57:00,
2013-02-17 18:59:00,28.4,18.1,29.71,SE,137,11.0,24.0,65,0.00,,,0.00,0,Wunderground v.1.15,2013-02-18 00:59:00,
2013-02-17 19:02:00,28.3,18.0,29.71,SE,128,11.0,28.0,65,0.00,,,0.00,0,Wunderground v.1.15,2013-02-18 01:02:00,
2013-02-17 19:04:00,28.4,18.1,29.71,SE,139,11.0,28.0,65,0.00,,,0.00,0,Wunderground v.1.15,2013-02-18 01:04:00,
2013-02-17 19:07:00,28.4,18.1,29.71,ESE,122,16.0,28.0,65,0.00,,,0.00,0,Wunderground v.1.15,2013-02-18 01:07:00,
2013-02-17 19:09:00,28.4,18.1,29.71,SE,133,17.0,28.0,65,0.00,,,0.00,0,Wunderground v.1.15,2013-02-18 01:09:00,
2013-02-17 19:12:00,28.4,18.1,29.70,ESE,118,13.0,24.0,65,0.00,,,0.00,0,Wunderground v.1.15,2013-02-18 01:12:00,
2013-02-17 19:14:00,28.4,18.1,29.70,SE,145,10.0,24.0,65,0.00,,,0.00,0,Wunderground v.1.15,2013-02-18 01:14:00,
2013-02-17 19:17:00,28.3,18.0,29.71,SE,125,14.0,24.0,65,0.00,,,0.00,0,Wunderground v.1.15,2013-02-18 01:17:00,
2013-02-17 19:18:00,28.4,18.1,29.71,ESE,123,13.0,25.0,65,0.00,,,0.00,0,Wunderground v.1.15,2013-02-18 01:18:00,
2013-02-17 19:19:00,28.4,18.1,29.71,SE,139,12.0,25.0,65,0.00,,,0.00,0,Wunderground v.1.15,2013-02-18 01:19:00,
2013-02-17 19:22:00,28.5,18.2,29.71,SSE,148,11.0,25.0,65,0.00,,,0.00,0,Wunderground v.1.15,2013-02-18 01:22:00,
2013-02-17 19:23:00,28.5,18.2,29.71,SE,130,10.0,25.0,65,0.00,,,0.00,0,Wunderground v.1.15,2013-02-18 01:23:00,
2013-02-17 19:24:00,28.5,18.2,29.71,ESE,112,16.0,25.0,65,0.00,,,0.00,0,Wunderground v.1.15,2013-02-18 01:24:00,
2013-02-17 19:27:00,28.5,18.6,29.71,SSE,150,14.0,25.0,66,0.00,,,0.00,0,Wunderground v.1.15,2013-02-18 01:27:00,
2013-02-17 19:28:00,28.5,18.6,29.71,SSE,152,11.0,25.0,66,0.00,,,0.00,0,Wunderground v.1.15,2013-02-18 01:28:00,
2013-02-17 19:29:00,28.5,18.2,29.71,SSE,148,16.0,25.0,65,0.00,,,0.00,0,Wunderground v.1.15,2013-02-18 01:29:00,
2013-02-17 19:32:00,28.5,18.2,29.72,SE,138,16.0,18.0,65,0.00,,,0.00,0,Wunderground v.1.15,2013-02-18 01:32:00,
2013-02-17 19:33:00,28.5,18.6,29.71,SE,137,9.0,18.0,66,0.00,,,0.00,0,Wunderground v.1.15,2013-02-18 01:33:00,
2013-02-17 19:34:00,28.4,18.5,29.72,SSE,165,13.0,18.0,66,0.00,,,0.00,0,Wunderground v.1.15,2013-02-18 01:34:00,
2013-02-17 19:37:00,28.4,18.5,29.72,SE,131,14.0,19.0,66,0.00,,,0.00,0,Wunderground v.1.15,2013-02-18 01:37:00,
2013-02-17 19:38:00,28.5,18.6,29.72,SE,137,10.0,19.0,66,0.00,,,0.00,0,Wunderground v.1.15,2013-02-18 01:38:00,
2013-02-17 19:39:00,28.5,18.6,29.71,SE,130,15.0,19.0,66,0.00,,,0.00,0,Wunderground v.1.15,2013-02-18 01:39:00,
2013-02-17 19:42:00,28.5,18.6,29.71,ESE,122,15.0,18.0,66,0.00,,,0.00,0,Wunderground v.1.15,2013-02-18 01:42:00,
2013-02-17 19:43:00,28.5,18.6,29.72,SE,141,14.0,21.0,66,0.00,,,0.00,0,Wunderground v.1.15,2013-02-18 01:43:00,
2013-02-17 19:44:00,28.5,18.6,29.72,SE,127,14.0,21.0,66,0.00,,,0.00,0,Wunderground v.1.15,2013-02-18 01:44:00,
2013-02-17 19:47:00,28.5,18.6,29.72,SE,145,14.0,22.0,66,0.00,,,0.00,0,Wunderground v.1.15,2013-02-18 01:47:00,
2013-02-17 19:48:00,28.5,18.6,29.72,SSE,163,8.0,22.0,66,0.00,,,0.00,0,Wunderground v.1.15,2013-02-18 01:48:00,
2013-02-17 19:49:00,28.5,18.6,29.72,SE,129,14.0,22.0,66,0.00,,,0.00,0,Wunderground v.1.15,2013-02-18 01:49:00,
2013-02-17 19:52:00,28.5,18.6,29.72,SE,131,14.0,20.0,66,0.00,,,0.00,0,Wunderground v.1.15,2013-02-18 01:52:00,
2013-02-17 19:54:00,28.6,18.7,29.72,SSE,147,11.0,20.0,66,0.00,,,0.00,0,Wunderground v.1.15,2013-02-18 01:54:00,
2013-02-17 19:57:00,28.5,18.6,29.71,SE,139,8.0,20.0,66,0.00,,,0.00,0,Wunderground v.1.15,2013-02-18 01:57:00,
2013-02-17 19:59:00,28.5,18.6,29.71,SE,128,9.0,20.0,66,0.00,,,0.00,0,Wunderground v.1.15,2013-02-18 01:59:00,
2013-02-17 20:00:00,28.5,18.6,29.71,SE,131,12.0,20.0,66,0.00,,,0.00,0,Wunderground v.1.15,2013-02-18 02:00:00,
2013-02-17 20:03:00,28.4,18.5,29.70,SE,145,13.0,17.0,66,0.00,,,0.00,0,Wunderground v.1.15,2013-02-18 02:03:00,
2013-02-17 20:04:00,28.4,18.5,29.71,SSE,149,20.0,23.0,66,0.00,,,0.00,0,Wunderground v.1.15,2013-02-18 02:04:00,
2013-02-17 20:05:00,28.5,18.6,29.71,SE,143,12.0,23.0,66,0.00,,,0.00,0,Wunderground v.1.15,2013-02-18 02:05:00,
2013-02-17 20:08:00,28.6,18.7,29.70,SE,143,19.0,25.0,66,0.00,,,0.00,0,Wunderground v.1.15,2013-02-18 02:08:00,
2013-02-17 20:09:00,28.5,18.6,29.70,SE,144,21.0,25.0,66,0.00,,,0.00,0,Wunderground v.1.15,2013-02-18 02:09:00,
2013-02-17 20:10:00,28.5,18.6,29.70,SE,144,11.0,17.0,66,0.00,,,0.00,0,Wunderground v.1.15,2013-02-18 02:10:00,
2013-02-17 20:13:00,28.5,18.6,29.70,SE,128,15.0,21.0,66,0.00,,,0.00,0,Wunderground v.1.15,2013-02-18 02:13:00,
2013-02-17 20:14:00,28.6,18.7,29.69,SSE,148,12.0,21.0,66,0.00,,,0.00,0,Wunderground v.1.15,2013-02-18 02:14:00,
2013-02-17 20:15:00,28.6,18.7,29.70,SE,130,11.0,21.0,66,0.00,,,0.00,0,Wunderground v.1.15,2013-02-18 02:15:00,
2013-02-17 20:18:00,28.6,18.7,29.70,SSE,147,14.0,24.0,66,0.00,,,0.00,0,Wunderground v.1.15,2013-02-18 02:18:00,
2013-02-17 20:19:00,28.6,18.7,29.69,SE,144,10.0,24.0,66,0.00,,,0.00,0,Wunderground v.1.15,2013-02-18 02:19:00,
2013-02-17 20:20:00,28.5,18.6,29.70,SE,145,8.0,8.0,66,0.00,,,0.00,0,Wunderground v.1.15,2013-02-18 02:20:00,
2013-02-17 20:21:00,28.5,18.6,29.70,SE,139,15.0,15.0,66,0.00,,,0.00,0,Wunderground v.1.15,2013-02-18 02:21:00,
2013-02-17 20:23:00,28.5,18.6,29.70,SE,126,15.0,25.0,66,0.00,,,0.00,0,Wunderground v.1.15,2013-02-18 02:23:00,
2013-02-17 20:24:00,28.6,18.7,29.69,SE,131,12.0,25.0,66,0.00,,,0.00,0,Wunderground v.1.15,2013-02-18 02:24:00,
2013-02-17 20:25:00,28.6,18.7,29.69,SSE,148,15.0,25.0,66,0.00,,,0.00,0,Wunderground v.1.15,2013-02-18 02:25:00,
2013-02-17 20:26:00,28.5,18.6,29.69,SE,124,9.0,25.0,66,0.00,,,0.00,0,Wunderground v.1.15,2013-02-18 02:26:00,
2013-02-17 20:28:00,28.5,18.6,29.69,ESE,120,9.0,25.0,66,0.00,,,0.00,0,Wunderground v.1.15,2013-02-18 02:28:00,
2013-02-17 20:29:00,28.5,18.6,29.69,SSE,150,22.0,25.0,66,0.00,,,0.00,0,Wunderground v.1.15,2013-02-18 02:29:00,
2013-02-17 20:30:00,28.5,18.6,29.69,SSE,149,10.0,15.0,66,0.00,,,0.00,0,Wunderground v.1.15,2013-02-18 02:30:00,
2013-02-17 20:32:00,28.5,18.6,29.69,SE,141,17.0,17.0,66,0.00,,,0.00,0,Wunderground v.1.15,2013-02-18 02:32:00,
2013-02-17 20:33:00,28.5,18.6,29.69,SE,125,7.0,19.0,66,0.00,,,0.00,0,Wunderground v.1.15,2013-02-18 02:33:00,
2013-02-17 20:35:00,28.4,18.5,29.69,SE,138,17.0,19.0,66,0.00,,,0.00,0,Wunderground v.1.15,2013-02-18 02:35:00,
2013-02-17 20:37:00,28.4,18.5,29.69,SE,143,13.0,19.0,66,0.00,,,0.00,0,Wunderground v.1.15,2013-02-18 02:37:00,
2013-02-17 20:38:00,28.4,18.5,29.69,SE,130,22.0,24.0,66,0.00,,,0.00,0,Wunderground v.1.15,2013-02-18 02:38:00,
2013-02-17 20:40:00,28.5,18.6,29.69,SE,138,14.0,16.0,66,0.00,,,0.00,0,Wunderground v.1.15,2013-02-18 02:40:00,
2013-02-17 20:42:00,28.5,18.6,29.69,SE,145,8.0,17.0,66,0.00,,,0.00,0,Wunderground v.1.15,2013-02-18 02:42:00,
2013-02-17 20:43:00,28.5,18.6,29.69,SE,142,17.0,23.0,66,0.00,,,0.00,0,Wunderground v.1.15,2013-02-18 02:43:00,
2013-02-17 20:45:00,28.5,18.6,29.69,SE,144,14.0,23.0,66,0.00,,,0.00,0,Wunderground v.1.15,2013-02-18 02:45:00,
2013-02-17 20:47:00,28.5,18.6,29.69,SE,138,12.0,23.0,66,0.00,,,0.00,0,Wunderground v.1.15,2013-02-18 02:47:00,
2013-02-17 20:49:00,28.5,18.6,29.69,SE,138,10.0,23.0,66,0.00,,,0.00,0,Wunderground v.1.15,2013-02-18 02:49:00,
2013-02-17 20:50:00,28.4,18.5,29.69,SE,140,15.0,23.0,66,0.00,,,0.00,0,Wunderground v.1.15,2013-02-18 02:50:00,
2013-02-17 20:52:00,28.5,18.6,29.69,SE,137,15.0,23.0,66,0.00,,,0.00,0,Wunderground v.1.15,2013-02-18 02:52:00,
2013-02-17 20:54:00,28.5,18.6,29.69,SE,139,8.0,23.0,66,0.00,,,0.00,0,Wunderground v.1.15,2013-02-18 02:54:00,
2013-02-17 20:55:00,28.5,18.6,29.69,SE,145,8.0,23.0,66,0.00,,,0.00,0,Wunderground v.1.15,2013-02-18 02:55:00,
2013-02-17 20:57:00,28.5,18.6,29.69,SE,145,13.0,23.0,66,0.00,,,0.00,0,Wunderground v.1.15,2013-02-18 02:57:00,
2013-02-17 20:59:00,28.5,18.6,29.69,ESE,111,7.0,23.0,66,0.00,,,0.00,0,Wunderground v.1.15,2013-02-18 02:59:00,
2013-02-17 21:00:00,28.5,18.6,29.68,SE,139,10.0,15.0,66,0.00,,,0.00,0,Wunderground v.1.15,2013-02-18 03:00:00,
2013-02-17 21:02:00,28.5,18.6,29.68,SE,144,12.0,23.0,66,0.00,,,0.00,0,Wunderground v.1.15,2013-02-18 03:02:00,
2013-02-17 21:05:00,28.5,18.6,29.69,SSE,147,7.0,23.0,66,0.00,,,0.00,0,Wunderground v.1.15,2013-02-18 03:05:00,
2013-02-17 21:06:00,28.5,18.6,29.69,ESE,116,9.0,23.0,66,0.00,,,0.00,0,Wunderground v.1.15,2013-02-18 03:06:00,
2013-02-17 21:08:00,28.5,18.6,29.68,SE,145,10.0,23.0,66,0.00,,,0.00,0,Wunderground v.1.15,2013-02-18 03:08:00,
2013-02-17 21:10:00,28.5,18.6,29.69,SE,145,10.0,10.0,66,0.00,,,0.00,0,Wunderground v.1.15,2013-02-18 03:10:00,
2013-02-17 21:11:00,28.4,18.1,29.69,SE,143,15.0,15.0,65,0.00,,,0.00,0,Wunderground v.1.15,2013-02-18 03:11:00,
2013-02-17 21:13:00,28.5,18.6,29.68,SE,136,14.0,24.0,66,0.00,,,0.00,0,Wunderground v.1.15,2013-02-18 03:13:00,
2013-02-17 21:15:00,28.6,18.7,29.69,ESE,119,13.0,24.0,66,0.00,,,0.00,0,Wunderground v.1.15,2013-02-18 03:15:00,
2013-02-17 21:16:00,28.6,18.3,29.68,SE,145,7.0,24.0,65,0.00,,,0.00,0,Wunderground v.1.15,2013-02-18 03:16:00,
2013-02-17 21:19:00,28.6,18.3,29.69,SE,126,12.0,24.0,65,0.00,,,0.00,0,Wunderground v.1.15,2013-02-18 03:19:00,
2013-02-17 21:20:00,28.6,18.3,29.68,SE,138,13.0,16.0,65,0.00,,,0.00,0,Wunderground v.1.15,2013-02-18 03:20:00,
2013-02-17 21:21:00,28.6,18.3,29.69,SE,146,16.0,17.0,65,0.00,,,0.00,0,Wunderground v.1.15,2013-02-18 03:21:00,
2013-02-17 21:24:00,28.7,18.4,29.68,SSE,148,14.0,21.0,65,0.00,,,0.00,0,Wunderground v.1.15,2013-02-18 03:24:00,
2013-02-17 21:25:00,28.7,18.4,29.68,ESE,120,7.0,21.0,65,0.00,,,0.00,0,Wunderground v.1.15,2013-02-18 03:25:00,
2013-02-17 21:26:00,28.8,18.5,29.68,SE,144,15.0,23.0,65,0.00,,,0.00,0,Wunderground v.1.15,2013-02-18 03:26:00,
2013-02-17 21:29:00,28.8,18.5,29.68,SE,143,18.0,23.0,65,0.00,,,0.00,0,Wunderground v.1.15,2013-02-18 03:29:00,
2013-02-17 21:30:00,28.8,18.5,29.68,SE,124,12.0,12.0,65,0.00,,,0.00,0,Wunderground v.1.15,2013-02-18 03:30:00,
2013-02-17 21:31:00,28.7,18.4,29.68,SE,146,13.0,13.0,65,0.00,,,0.00,0,Wunderground v.1.15,2013-02-18 03:31:00,
2013-02-17 21:34:00,28.7,18.4,29.68,SE,129,15.0,22.0,65,0.00,,,0.00,0,Wunderground v.1.15,2013-02-18 03:34:00,
2013-02-17 21:35:00,28.7,18.4,29.68,SE,130,10.0,22.0,65,0.00,,,0.00,0,Wunderground v.1.15,2013-02-18 03:35:00,
2013-02-17 21:36:00,28.7,18.4,29.68,SSE,149,16.0,22.0,65,0.00,,,0.00,0,Wunderground v.1.15,2013-02-18 03:36:00,
2013-02-17 21:39:00,28.7,18.4,29.68,SSE,152,12.0,22.0,65,0.00,,,0.00,0,Wunderground v.1.15,2013-02-18 03:39:00,
2013-02-17 21:40:00,28.7,18.4,29.68,SE,129,15.0,16.0,65,0.00,,,0.00,0,Wunderground v.1.15,2013-02-18 03:40:00,
2013-02-17 21:41:00,28.7,18.4,29.68,SSE,147,14.0,16.0,65,0.00,,,0.00,0,Wunderground v.1.15,2013-02-18 03:41:00,
2013-02-17 21:42:00,28.7,18.4,29.68,SE,144,11.0,16.0,65,0.00,,,0.00,0,Wunderground v.1.15,2013-02-18 03:42:00,
2013-02-17 21:44:00,28.8,18.5,29.68,SE,146,14.0,24.0,65,0.00,,,0.00,0,Wunderground v.1.15,2013-02-18 03:44:00,
2013-02-17 21:45:00,28.8,18.1,29.67,SE,141,13.0,24.0,64,0.00,,,0.00,0,Wunderground v.1.15,2013-02-18 03:45:00,
2013-02-17 21:46:00,28.8,18.1,29.68,SE,131,8.0,24.0,64,0.00,,,0.00,0,Wunderground v.1.15,2013-02-18 03:46:00,
2013-02-17 21:47:00,28.7,18.1,29.67,ESE,121,12.0,24.0,64,0.00,,,0.00,0,Wunderground v.1.15,2013-02-18 03:47:00,
2013-02-17 21:49:00,28.6,18.0,29.67,SE,137,15.0,24.0,64,0.00,,,0.00,0,Wunderground v.1.15,2013-02-18 03:49:00,
2013-02-17 21:50:00,28.7,18.4,29.67,SE,140,12.0,17.0,65,0.00,,,0.00,0,Wunderground v.1.15,2013-02-18 03:50:00,
2013-02-17 21:51:00,28.7,18.4,29.67,SE,139,17.0,18.0,65,0.00,,,0.00,0,Wunderground v.1.15,2013-02-18 03:51:00,
2013-02-17 21:52:00,28.7,18.4,29.67,ESE,118,16.0,20.0,65,0.00,,,0.00,0,Wunderground v.1.15,2013-02-18 03:52:00,
2013-02-17 21:55:00,28.7,18.1,29.67,SE,136,8.0,20.0,64,0.00,,,0.00,0,Wunderground v.1.15,2013-02-18 03:55:00,
2013-02-17 21:56:00,28.7,18.1,29.67,SE,144,10.0,20.0,64,0.00,,,0.00,0,Wunderground v.1.15,2013-02-18 03:56:00,
2013-02-17 21:57:00,28.7,18.1,29.67,SE,138,13.0,20.0,64,0.00,,,0.00,0,Wunderground v.1.15,2013-02-18 03:57:00,
2013-02-17 22:00:00,28.6,18.0,29.66,ESE,123,12.0,15.0,64,0.00,,,0.00,0,Wunderground v.1.15,2013-02-18 04:00:00,
2013-02-17 22:01:00,28.6,18.3,29.66,SE,141,11.0,15.0,65,0.00,,,0.00,0,Wunderground v.1.15,2013-02-18 04:01:00,
2013-02-17 22:02:00,28.7,18.4,29.66,SE,131,10.0,16.0,65,0.00,,,0.00,0,Wunderground v.1.15,2013-02-18 04:02:00,
2013-02-17 22:05:00,28.7,18.1,29.66,ESE,121,12.0,16.0,64,0.00,,,0.00,0,Wunderground v.1.15,2013-02-18 04:05:00,
2013-02-17 22:06:00,28.6,18.3,29.66,SE,124,10.0,16.0,65,0.00,,,0.00,0,Wunderground v.1.15,2013-02-18 04:06:00,
2013-02-17 22:07:00,28.6,18.0,29.66,ESE,120,12.0,16.0,64,0.00,,,0.00,0,Wunderground v.1.15,2013-02-18 04:07:00,
2013-02-17 22:10:00,28.6,18.0,29.65,SSE,150,13.0,17.0,64,0.00,,,0.00,0,Wunderground v.1.15,2013-02-18 04:10:00,
2013-02-17 22:12:00,28.7,18.4,29.66,SSE,148,21.0,22.0,65,0.00,,,0.00,0,Wunderground v.1.15,2013-02-18 04:12:00,
2013-02-17 22:13:00,28.8,18.5,29.65,SE,145,14.0,22.0,65,0.00,,,0.00,0,Wunderground v.1.15,2013-02-18 04:13:00,
2013-02-17 22:16:00,28.8,18.1,29.65,SE,128,9.0,22.0,64,0.00,,,0.00,0,Wunderground v.1.15,2013-02-18 04:16:00,
2013-02-17 22:17:00,28.8,18.1,29.65,SE,140,14.0,22.0,64,0.00,,,0.00,0,Wunderground v.1.15,2013-02-18 04:17:00,
2013-02-17 22:18:00,28.9,18.2,29.65,SE,145,13.0,22.0,64,0.00,,,0.00,0,Wunderground v.1.15,2013-02-18 04:18:00,
2013-02-17 22:21:00,28.8,18.1,29.65,SE,146,9.0,21.0,64,0.00,,,0.00,0,Wunderground v.1.15,2013-02-18 04:21:00,
2013-02-17 22:22:00,28.8,18.1,29.65,ESE,119,10.0,21.0,64,0.00,,,0.00,0,Wunderground v.1.15,2013-02-18 04:22:00,
2013-02-17 22:23:00,28.8,18.1,29.65,SE,138,10.0,21.0,64,0.00,,,0.00,0,Wunderground v.1.15,2013-02-18 04:23:00,
2013-02-17 22:26:00,28.8,18.1,29.65,SE,142,15.0,21.0,64,0.00,,,0.00,0,Wunderground v.1.15,2013-02-18 04:26:00,
2013-02-17 22:27:00,28.8,18.1,29.65,SE,142,11.0,21.0,64,0.00,,,0.00,0,Wunderground v.1.15,2013-02-18 04:27:00,
2013-02-17 22:28:00,28.8,18.1,29.65,SSE,150,14.0,21.0,64,0.00,,,0.00,0,Wunderground v.1.15,2013-02-18 04:28:00,
2013-02-17 22:31:00,28.9,18.2,29.65,SSE,154,9.0,16.0,64,0.00,,,0.00,0,Wunderground v.1.15,2013-02-18 04:31:00,
2013-02-17 22:32:00,28.9,18.2,29.65,SE,137,9.0,16.0,64,0.00,,,0.00,0,Wunderground v.1.15,2013-02-18 04:32:00,
2013-02-17 22:33:00,28.9,18.2,29.65,SE,139,11.0,16.0,64,0.00,,,0.00,0,Wunderground v.1.15,2013-02-18 04:33:00,
2013-02-17 22:36:00,28.9,18.2,29.65,ESE,123,14.0,17.0,64,0.00,,,0.00,0,Wunderground v.1.15,2013-02-18 04:36:00,
2013-02-17 22:37:00,28.9,18.2,29.64,SE,146,18.0,19.0,64,0.00,,,0.00,0,Wunderground v.1.15,2013-02-18 04:37:00,
2013-02-17 22:38:00,29.0,18.3,29.65,SE,129,13.0,19.0,64,0.00,,,0.00,0,Wunderground v.1.15,2013-02-18 04:38:00,
2013-02-17 22:39:00,29.0,18.3,29.65,SE,133,14.0,19.0,64,0.00,,,0.00,0,Wunderground v.1.15,2013-02-18 04:39:00,
2013-02-17 22:41:00,29.0,18.3,29.64,ESE,119,9.0,16.0,64,0.00,,,0.00,0,Wunderground v.1.15,2013-02-18 04:41:00,
2013-02-17 22:42:00,29.0,18.3,29.65,SE,140,14.0,20.0,64,0.00,,,0.00,0,Wunderground v.1.15,2013-02-18 04:42:00,
2013-02-17 22:43:00,29.0,18.3,29.65,SE,140,11.0,20.0,64,0.00,,,0.00,0,Wunderground v.1.15,2013-02-18 04:43:00,
2013-02-17 22:44:00,29.0,18.3,29.64,ESE,119,12.0,20.0,64,0.00,,,0.00,0,Wunderground v.1.15,2013-02-18 04:44:00,
2013-02-17 22:46:00,29.1,18.4,29.64,SE,126,10.0,20.0,64,0.00,,,0.00,0,Wunderground v.1.15,2013-02-18 04:46:00,
2013-02-17 22:47:00,29.1,18.4,29.64,SSE,148,14.0,20.0,64,0.00,,,0.00,0,Wunderground v.1.15,2013-02-18 04:47:00,
2013-02-17 22:48:00,29.1,18.4,29.64,SE,135,14.0,20.0,64,0.00,,,0.00,0,Wunderground v.1.15,2013-02-18 04:48:00,
2013-02-17 22:49:00,29.1,18.4,29.64,ESE,122,8.0,20.0,64,0.00,,,0.00,0,Wunderground v.1.15,2013-02-18 04:49:00,
2013-02-17 22:51:00,29.1,18.4,29.64,SE,132,14.0,19.0,64,0.00,,,0.00,0,Wunderground v.1.15,2013-02-18 04:51:00,
2013-02-17 22:52:00,29.1,18.4,29.64,SE,138,7.0,19.0,64,0.00,,,0.00,0,Wunderground v.1.15,2013-02-18 04:52:00,
2013-02-17 22:54:00,29.1,18.4,29.64,SE,129,10.0,19.0,64,0.00,,,0.00,0,Wunderground v.1.15,2013-02-18 04:54:00,
2013-02-17 22:57:00,29.1,18.4,29.64,SE,140,13.0,19.0,64,0.00,,,0.00,0,Wunderground v.1.15,2013-02-18 04:57:00,
2013-02-17 22:58:00,29.1,18.4,29.64,SE,128,10.0,19.0,64,0.00,,,0.00,0,Wunderground v.1.15,2013-02-18 04:58:00,
2013-02-17 22:59:00,29.2,18.5,29.64,SE,134,9.0,19.0,64,0.00,,,0.00,0,Wunderground v.1.15,2013-02-18 04:59:00,
2013-02-17 23:00:00,29.2,18.5,29.65,SE,143,10.0,12.0,64,0.00,,,0.00,0,Wunderground v.1.15,2013-02-18 05:00:00,
2013-02-17 23:05:00,29.2,18.5,29.64,SE,131,9.0,14.0,64,0.00,,,0.00,0,Wunderground v.1.15,2013-02-18 05:05:00,
2013-02-17 23:10:00,29.2,18.5,29.64,SE,138,12.0,12.0,64,0.00,,,0.00,0,Wunderground v.1.15,2013-02-18 05:10:00,
2013-02-17 23:11:00,29.1,18.4,29.64,ESE,123,10.0,12.0,64,0.00,,,0.00,0,Wunderground v.1.15,2013-02-18 05:11:00,
2013-02-17 23:15:00,29.2,18.5,29.64,SE,146,15.0,20.0,64,0.00,,,0.00,0,Wunderground v.1.15,2013-02-18 05:15:00,
2013-02-17 23:16:00,29.2,18.5,29.63,SE,129,13.0,20.0,64,0.00,,,0.00,0,Wunderground v.1.15,2013-02-18 05:16:00,
2013-02-17 23:20:00,29.2,18.5,29.63,SE,126,10.0,11.0,64,0.00,,,0.00,0,Wunderground v.1.15,2013-02-18 05:20:00,
2013-02-17 23:21:00,29.2,18.5,29.63,SSE,148,12.0,14.0,64,0.00,,,0.00,0,Wunderground v.1.15,2013-02-18 05:21:00,
2013-02-17 23:25:00,29.3,18.6,29.63,SE,141,15.0,19.0,64,0.00,,,0.00,0,Wunderground v.1.15,2013-02-18 05:25:00,
2013-02-17 23:26:00,29.3,18.6,29.63,SE,129,11.0,19.0,64,0.00,,,0.00,0,Wunderground v.1.15,2013-02-18 05:26:00,
2013-02-17 23:30:00,29.5,18.8,29.63,ESE,122,8.0,14.0,64,0.00,,,0.00,0,Wunderground v.1.15,2013-02-18 05:30:00,
2013-02-17 23:31:00,29.5,18.8,29.63,SE,137,21.0,21.0,64,0.00,,,0.00,0,Wunderground v.1.15,2013-02-18 05:31:00,
2013-02-17 23:32:00,29.6,18.9,29.62,SE,136,12.0,24.0,64,0.00,,,0.00,0,Wunderground v.1.15,2013-02-18 05:32:00,
2013-02-17 23:35:00,29.6,18.9,29.62,SE,140,7.0,24.0,64,0.00,,,0.00,0,Wunderground v.1.15,2013-02-18 05:35:00,
2013-02-17 23:36:00,29.6,18.9,29.62,SE,142,11.0,24.0,64,0.00,,,0.00,0,Wunderground v.1.15,2013-02-18 05:36:00,
2013-02-17 23:37:00,29.5,18.8,29.62,SE,125,13.0,24.0,64,0.00,,,0.00,0,Wunderground v.1.15,2013-02-18 05:37:00,
2013-02-17 23:41:00,29.5,18.8,29.62,SE,146,10.0,13.0,64,0.00,,,0.00,0,Wunderground v.1.15,2013-02-18 05:41:00,
2013-02-17 23:42:00,29.5,18.8,29.62,ESE,121,9.0,13.0,64,0.00,,,0.00,0,Wunderground v.1.15,2013-02-18 05:42:00,
2013-02-17 23:46:00,29.4,18.7,29.62,ESE,121,6.0,15.0,64,0.00,,,0.00,0,Wunderground v.1.15,2013-02-18 05:46:00,
2013-02-17 23:47:00,29.4,18.7,29.61,ESE,120,10.0,15.0,64,0.00,,,0.00,0,Wunderground v.1.15,2013-02-18 05:47:00,
2013-02-17 23:51:00,29.3,18.6,29.62,ESE,107,8.0,14.0,64,0.00,,,0.00,0,Wunderground v.1.15,2013-02-18 05:51:00,
2013-02-17 23:52:00,29.3,18.6,29.61,SSE,163,11.0,14.0,64,0.00,,,0.00,0,Wunderground v.1.15,2013-02-18 05:52:00,
2013-02-17 23:56:00,29.6,18.9,29.61,SE,136,8.0,21.0,64,0.00,,,0.00,0,Wunderground v.1.15,2013-02-18 05:56:00,
2013-02-17 23:57:00,29.6,18.9,29.62,SE,145,7.0,21.0,64,0.00,,,0.00,0,Wunderground v.1.15,2013-02-18 05:57:00,